GFSNGP_sfc_wetblb_195.txt.gz
Wetbulb
43.61 46.38 47.92 47.52 47.33 47.61 43.59 43.08 41.54 43.14 43.57 47.64 49.40 50.91 52.47 53.80 55.68 58.99 59.66 60.61 61.14 60.72 61.17 62.53 65.88 67.86 69.01 69.52 70.13 70.23 69.65 69.73 69.01 69.29 69.48 69.23 69.06 69.00 69.73 69.39 70.10 70.85 69.65 69.47
38.65 44.65 46.59 43.70 45.48 48.15 47.40 47.71 45.99 46.43 46.95 51.30 53.65 55.15 53.81 55.25 56.21 58.59 58.66 59.93 62.38 62.47 61.73 63.83 65.93 67.53 69.18 69.56 70.15 70.72 70.33 69.88 70.18 69.92 69.67 69.88 70.01 70.17 70.36 70.18 70.18 70.14 70.36 70.62
32.35 40.37 40.73 36.29 45.09 44.87 45.14 46.63 46.37 42.79 48.12 52.44 53.01 55.31 55.98 55.00 55.38 56.73 58.66 59.92 58.90 62.88 64.50 63.27 66.05 67.91 68.79 69.64 70.67 70.57 70.56 70.45 70.04 70.35 70.10 70.31 70.33 70.21 70.41 70.59 71.27 71.20 71.11 70.44
32.99 34.91 29.61 38.84 45.94 47.80 48.23 52.17 53.92 53.12 54.13 55.31 54.90 55.80 56.43 58.54 56.46 56.95 57.88 59.70 60.15 63.91 65.07 65.40 65.80 67.22 68.62 70.16 70.42 70.41 70.32 70.39 70.42 70.49 70.28 70.44 70.05 69.91 69.40 69.04 69.47 70.34 70.79 70.69
32.51 31.47 36.51 42.31 47.06 46.20 43.78 45.59 53.49 53.92 54.77 55.76 56.36 57.53 55.84 59.68 59.70 57.52 59.08 60.41 62.25 62.99 63.82 65.02 66.47 67.06 67.67 69.35 69.96 70.07 70.06 69.99 70.31 70.39 70.40 70.57 69.78 69.96 70.34 70.26 69.50 69.40 70.17 70.23
33.17 30.64 30.95 41.55 48.89 50.59 48.44 40.96 53.70 55.25 53.89 53.71 54.52 51.22 54.46 57.82 59.58 61.01 60.04 59.82 61.08 62.26 63.33 62.71 63.40 67.95 67.76 68.24 69.11 69.27 69.88 69.93 70.29 70.55 70.35 69.87 70.13 70.26 69.65 69.33 69.67 69.27 69.77 69.81
35.75 34.96 38.74 47.47 50.08 50.91 39.66 40.59 54.12 55.28 54.01 53.29 50.91 53.50 55.81 58.00 59.32 61.01 59.16 60.40 62.27 61.57 60.90 60.73 62.36 67.47 67.58 67.92 68.02 69.57 70.20 70.44 70.71 70.51 70.22 70.62 70.34 69.18 69.90 69.43 69.65 69.59 69.86 68.44
35.23 32.51 33.21 49.38 49.24 44.04 46.17 49.56 51.84 53.88 54.56 54.11 54.50 55.76 56.60 57.36 57.44 58.82 59.67 61.74 62.07 61.45 59.85 61.70 63.61 63.34 65.48 67.58 69.25 69.67 70.85 70.77 70.50 69.83 70.35 69.43 69.43 69.05 69.45 69.92 69.59 68.89 67.87 66.12
37.42 38.10 44.48 48.24 47.47 49.65 49.30 48.49 49.42 50.35 53.36 54.49 54.00 54.51 55.71 55.69 56.53 57.77 58.14 59.42 62.77 60.96 60.22 61.42 63.47 63.34 63.48 66.89 70.55 70.56 70.98 70.37 69.54 69.34 69.22 68.93 68.12 67.62 67.78 68.14 68.03 67.10 66.26 64.79
39.56 41.00 45.20 47.53 49.07 50.41 50.46 49.71 50.34 51.26 52.25 53.89 53.95 54.88 53.86 54.34 54.73 56.16 57.63 58.44 61.20 60.97 60.62 60.83 61.81 62.47 62.39 66.91 70.26 69.32 70.19 69.29 68.75 68.05 66.34 67.08 66.83 66.74 66.27 65.99 65.54 66.20 65.31 63.98
39.03 42.28 45.95 48.04 48.94 49.82 51.29 52.33 52.06 52.33 52.11 52.96 52.99 53.10 53.03 52.84 53.12 53.61 54.89 57.59 61.54 60.61 59.68 59.79 60.34 60.89 61.64 67.62 69.77 69.63 69.40 68.39 67.62 66.45 65.78 61.53 56.60 58.92 63.70 59.76 62.21 65.04 65.00 63.79
38.78 43.68 45.18 46.87 50.12 51.20 50.21 50.67 51.56 51.35 51.44 52.50 52.14 51.25 52.12 52.75 53.64 52.46 53.25 55.88 57.94 58.97 58.88 59.25 59.39 59.64 60.47 61.55 69.36 68.48 66.49 67.03 65.47 64.52 63.28 61.24 58.85 54.70 48.50 48.33 46.21 48.24 52.78 59.74
46.63 48.96 49.74 51.13 52.19 52.46 51.17 50.92 51.92 51.59 52.12 51.32 51.78 51.64 51.48 51.79 53.01 54.02 53.58 55.17 56.68 56.65 58.08 60.73 59.47 59.45 60.40 60.61 66.79 68.80 67.35 67.01 65.76 62.70 62.55 60.74 60.66 60.38 58.57 52.76 47.10 44.95 45.16 47.88
50.56 50.83 50.03 51.64 50.29 53.55 53.66 53.60 53.68 53.13 52.39 52.21 51.95 52.21 51.89 51.12 51.91 52.84 52.81 54.33 55.34 55.89 57.75 61.96 61.60 60.03 61.38 62.46 63.48 66.77 68.30 61.48 66.29 64.41 62.15 60.77 60.52 60.14 59.82 58.43 57.51 56.04 48.75 48.79
51.34 52.76 52.66 53.67 53.63 53.14 54.24 54.02 52.45 51.65 51.44 51.46 52.34 51.79 51.81 51.06 50.90 51.74 53.41 54.63 55.13 56.69 61.37 63.31 62.27 60.70 62.27 62.49 63.34 64.13 67.17 66.13 66.38 64.05 62.84 61.11 61.06 59.88 59.33 58.13 58.05 55.14 53.69 49.80
52.26 52.44 53.14 53.15 53.10 53.39 53.63 53.07 51.88 51.20 51.64 52.00 51.57 51.57 52.04 51.90 51.74 51.85 53.14 53.74 53.89 56.50 61.34 61.09 61.09 60.86 62.68 62.98 62.86 61.52 62.61 63.61 64.87 65.24 62.47 61.78 61.13 60.22 58.37 57.55 56.46 55.26 56.30 56.22
50.91 50.69 52.23 53.21 53.63 53.51 53.74 53.75 52.88 52.04 52.17 52.66 52.73 52.83 52.46 51.95 51.16 50.95 51.35 53.71 56.03 59.20 62.22 60.07 59.84 62.46 63.17 62.30 62.52 62.08 61.76 62.79 63.70 65.81 64.23 63.25 61.72 60.86 59.70 58.48 57.86 57.09 56.24 55.46
54.46 54.97 55.43 55.65 55.04 55.05 55.64 55.80 54.70 54.00 53.38 53.90 54.17 53.60 53.19 50.97 50.04 50.86 51.06 54.24 58.19 60.06 61.63 61.15 62.59 63.79 63.85 63.24 62.80 61.96 62.59 62.28 62.21 64.53 65.38 64.60 63.04 62.51 60.83 59.76 59.10 58.13 56.36 53.75
55.54 55.74 56.27 56.38 56.06 55.63 55.71 55.49 55.82 54.74 54.71 54.94 54.26 53.51 54.01 51.94 51.18 51.31 52.03 54.65 56.30 57.28 60.06 61.31 61.87 62.29 62.49 64.48 62.48 62.23 63.03 62.33 62.07 62.49 62.78 60.45 62.10 62.50 61.85 61.42 60.41 60.26 58.83 56.85
55.90 56.67 56.75 56.39 56.80 56.08 56.50 56.54 55.73 54.77 55.96 56.23 55.89 54.35 53.21 51.30 51.69 51.69 53.32 54.55 56.86 59.20 58.27 61.35 61.65 61.08 61.67 62.54 63.67 63.81 63.27 62.87 62.11 61.74 61.72 61.06 60.41 60.42 61.64 57.35 61.17 61.35 60.35 59.93
56.06 55.93 55.84 55.84 55.85 56.82 56.37 55.41 53.60 55.59 56.29 56.01 53.07 51.56 51.21 51.81 52.37 52.42 51.93 53.99 58.22 59.27 60.06 60.69 61.74 62.21 62.97 61.80 62.72 63.39 63.40 62.82 61.85 61.75 61.20 60.62 58.66 59.64 59.42 60.64 61.01 61.33 61.48 61.47
56.22 55.37 55.63 55.63 55.19 55.07 56.00 55.23 54.92 53.61 52.97 53.31 54.05 52.83 52.70 52.79 53.75 54.13 55.45 56.25 56.53 55.13 60.29 61.27 63.43 62.68 63.16 62.62 62.96 63.43 63.15 63.19 63.64 63.42 61.37 59.82 58.88 58.95 58.77 58.56 58.89 60.60 61.57 61.96
55.79 55.35 55.39 55.15 54.43 54.41 55.29 55.87 55.19 55.31 53.34 53.29 52.77 53.01 52.79 53.21 54.22 55.13 55.27 57.09 57.38 56.28 60.73 61.56 61.50 60.17 60.03 63.00 64.05 64.24 64.23 63.54 63.68 63.10 61.77 60.10 59.83 58.84 57.54 57.17 57.87 60.91 60.13 61.36
54.91 54.67 54.67 55.05 54.58 54.06 52.81 54.48 55.27 55.49 55.20 54.23 53.82 54.35 52.25 53.52 54.76 55.27 56.39 56.22 54.82 56.40 60.35 61.22 59.99 57.13 58.31 63.93 64.59 64.49 64.08 63.62 61.33 60.97 60.95 54.70 58.80 57.85 57.25 56.76 56.58 57.20 56.98 56.73
53.70 53.95 53.53 53.31 53.00 52.73 53.62 53.49 54.14 55.46 56.15 54.30 54.55 55.37 55.75 56.28 56.18 58.34 58.73 58.17 53.62 58.17 58.95 55.64 56.14 57.49 63.19 63.71 63.29 62.88 62.44 62.27 60.61 59.16 59.38 58.38 58.02 58.61 57.75 56.24 55.15 53.99 53.99 53.00
52.79 52.35 52.15 52.86 52.86 52.89 52.61 52.81 52.22 54.70 56.09 53.07 54.15 54.93 56.70 57.35 59.19 58.81 58.42 56.99 59.63 56.52 59.88 60.57 59.70 59.56 59.34 59.46 58.88 57.25 56.46 59.34 58.86 59.57 59.02 58.07 56.27 54.76 53.13 51.40 50.25 49.92 49.56 49.61
52.94 49.53 51.53 51.76 52.14 51.90 52.00 51.60 52.18 55.46 55.26 55.98 55.36 57.92 57.35 59.08 59.36 58.84 57.05 59.33 58.39 57.37 56.72 56.40 56.68 56.72 57.17 56.22 55.10 54.51 53.97 52.36 49.51 53.54 53.09 52.38 52.03 51.29 50.36 50.09 49.56 49.52 49.63 48.49

GFSNGP_sfc_wetblb_198.txt.gz
Wetbulb
41.94 44.48 42.84 44.06 45.80 46.50 42.79 42.86 40.59 43.18 43.51 47.68 49.20 50.41 52.28 54.18 55.37 56.60 58.69 60.73 61.05 60.96 61.69 62.40 65.23 66.86 67.90 68.05 68.69 68.96 68.43 68.32 68.17 69.05 69.51 69.65 69.82 70.44 70.19 70.42 71.25 71.67 71.51 70.99
36.21 41.21 41.56 42.67 43.47 43.13 44.31 46.43 43.91 45.08 45.73 51.12 53.46 54.46 55.06 54.03 55.39 55.84 56.47 58.31 59.36 62.49 61.92 62.36 64.99 66.69 68.29 68.27 68.68 69.37 68.49 68.39 69.04 68.46 68.92 69.05 69.10 69.18 70.21 70.39 70.60 70.88 71.09 71.04
31.30 37.91 38.95 35.86 39.11 41.95 44.23 47.83 47.31 42.36 48.01 54.18 54.01 55.12 54.68 55.86 56.23 56.68 57.73 59.35 60.38 59.80 61.64 62.60 64.46 67.21 67.83 68.81 69.53 69.36 69.17 69.10 69.69 69.19 68.75 69.34 69.38 69.54 69.47 69.60 70.24 70.03 70.43 71.07
31.45 33.11 28.58 37.85 46.92 48.52 50.02 52.27 52.98 53.26 53.64 54.59 54.47 55.91 57.51 58.34 57.94 58.95 59.26 59.47 60.16 62.15 63.24 65.39 64.82 66.86 68.38 69.52 69.71 69.56 69.84 69.38 69.93 69.75 69.29 70.22 70.17 69.89 70.31 70.73 70.66 70.91 71.17 71.66
31.30 29.61 35.70 41.85 45.70 45.44 43.61 44.35 53.23 52.90 53.29 54.25 54.91 56.37 56.91 57.64 58.09 59.60 60.43 59.61 60.20 61.85 63.28 64.10 66.31 66.49 68.25 69.14 69.75 69.69 69.85 70.12 69.95 69.93 69.36 69.90 70.04 70.32 70.84 70.77 70.57 71.10 71.83 71.86
31.45 29.73 30.22 41.11 48.11 50.20 47.86 39.65 50.00 53.85 53.00 52.76 53.09 48.15 52.12 56.58 58.02 58.59 60.33 60.38 61.17 61.93 62.47 62.30 63.44 67.02 67.65 69.01 69.55 69.43 70.10 70.53 70.93 71.00 70.32 70.29 70.56 70.71 71.05 71.07 70.82 70.77 70.58 71.40
33.71 33.56 37.56 46.68 48.73 50.16 39.07 40.32 49.36 50.82 52.01 52.62 50.61 52.56 55.02 56.99 57.69 58.49 59.74 60.26 61.96 62.01 60.45 61.03 63.23 66.03 67.38 68.48 68.90 70.39 71.23 71.10 71.02 71.15 71.19 71.40 71.31 71.35 71.13 71.22 71.24 70.66 70.68 70.85
33.43 31.50 32.10 48.21 48.24 43.39 45.75 48.21 49.72 50.07 50.70 50.65 51.40 52.91 54.32 55.55 56.16 56.77 56.88 58.82 60.35 61.33 61.24 61.87 63.08 63.77 66.92 67.55 69.03 70.02 70.42 70.47 70.62 70.94 71.29 71.30 71.05 70.59 70.68 70.73 69.85 70.01 69.44 67.95
37.21 36.84 43.20 46.67 47.51 49.39 49.12 47.75 48.20 48.88 49.99 50.43 50.34 50.88 52.69 53.43 54.40 55.12 56.20 57.06 59.16 60.77 61.49 61.80 62.59 63.38 63.38 65.16 69.73 69.87 70.10 69.98 70.48 71.02 70.76 70.91 70.53 70.00 69.85 69.83 69.42 68.11 67.50 65.94
39.24 40.95 43.31 46.04 47.77 49.03 49.82 49.07 50.01 50.36 50.70 51.33 50.11 51.04 51.63 52.68 53.39 53.72 54.85 55.42 57.17 60.60 61.05 60.98 62.53 63.15 63.51 64.13 66.18 70.37 69.26 70.53 70.59 70.02 69.42 69.98 70.35 70.05 69.60 69.33 68.97 67.75 66.78 65.27
38.86 42.35 44.30 46.45 48.41 49.18 50.52 51.95 51.43 52.13 51.78 51.39 51.12 50.92 51.54 52.20 52.33 52.40 53.74 55.23 56.07 56.46 58.22 59.47 61.41 61.67 61.86 63.36 66.52 68.54 70.10 69.83 69.10 68.88 67.64 63.47 58.78 61.17 66.52 63.49 65.15 67.98 67.37 65.37
38.53 44.36 46.20 47.50 50.73 51.87 51.26 51.71 52.77 52.00 51.24 52.34 52.22 51.06 52.09 51.73 52.10 52.03 52.42 54.01 55.04 55.71 57.10 57.31 59.18 60.45 61.54 62.05 63.34 68.67 68.56 67.68 66.25 64.47 63.04 61.23 60.55 58.96 51.81 50.18 48.27 50.48 53.38 61.32
44.92 48.62 49.39 50.43 51.59 53.02 52.55 53.39 54.21 52.97 52.90 51.71 52.24 52.20 52.28 51.65 52.03 52.29 52.36 52.77 54.30 55.01 55.73 56.24 56.97 59.39 61.37 61.96 62.30 67.62 68.16 67.34 66.62 64.24 64.88 62.43 61.29 61.07 60.59 53.41 46.38 44.64 47.40 49.21
48.55 49.30 48.39 51.08 50.56 53.56 53.79 54.36 55.30 55.03 54.85 54.37 53.86 53.78 53.15 52.01 52.24 51.88 51.77 52.64 54.32 55.35 55.20 56.03 57.08 59.56 61.66 62.44 62.50 65.75 68.43 60.27 66.25 65.12 64.72 63.83 63.17 62.68 62.07 60.59 60.35 58.59 47.83 48.32
49.93 52.06 52.22 53.46 53.90 53.89 54.58 55.18 54.56 53.77 54.28 54.22 54.58 53.56 52.71 51.55 51.32 51.77 52.80 53.08 54.27 54.89 55.11 56.49 58.28 61.13 61.75 64.24 64.42 65.21 67.05 67.66 66.42 65.56 64.68 62.51 63.01 62.65 63.09 62.67 62.84 58.72 53.94 48.59
52.05 52.56 53.11 52.88 53.80 54.67 54.85 55.30 54.38 54.03 54.38 54.16 53.70 53.10 52.90 53.07 52.60 52.77 52.81 52.75 52.68 53.09 54.49 55.32 56.69 61.81 63.19 63.59 62.67 63.03 66.35 64.78 64.16 65.30 64.03 63.21 62.80 62.41 61.61 61.59 61.09 58.85 58.12 57.26
50.94 51.01 52.48 52.67 53.45 54.50 55.05 55.36 55.08 55.62 55.86 54.95 53.93 53.97 53.49 52.98 52.40 52.09 52.32 52.84 53.54 53.91 54.90 56.66 57.93 62.05 63.11 63.61 63.39 62.73 63.31 65.32 63.72 64.34 63.80 62.98 63.23 62.50 62.07 61.31 60.90 60.40 59.83 57.67
53.23 53.97 54.91 55.09 54.87 54.75 55.13 55.82 55.51 55.89 55.39 56.25 55.81 54.82 53.46 53.27 52.34 52.26 52.36 52.45 52.84 53.50 55.23 58.12 61.61 62.52 63.29 63.21 62.43 62.86 62.92 62.64 62.63 64.95 64.43 64.02 63.73 63.44 62.07 61.74 61.54 60.91 58.97 56.32
54.46 54.85 55.62 56.21 55.94 55.53 55.63 55.68 55.37 56.13 56.45 56.40 55.64 54.64 54.54 54.38 54.37 54.20 52.57 52.03 52.24 52.89 54.60 60.30 61.76 62.67 63.00 63.63 62.18 61.96 62.47 62.38 61.52 61.18 63.33 61.92 63.07 63.23 62.46 61.70 61.26 60.71 59.88 56.53
54.65 55.05 56.52 56.07 56.27 55.90 54.66 55.40 55.07 54.49 54.70 56.24 55.86 55.63 54.76 54.44 54.83 53.19 52.19 52.31 53.31 54.30 59.09 61.46 62.40 63.24 63.39 63.90 63.49 62.85 63.05 63.07 61.74 61.92 62.21 64.13 63.65 63.47 62.80 57.58 61.52 61.49 60.83 59.62
54.58 55.32 55.91 55.39 55.27 55.52 55.16 54.97 55.15 54.32 54.54 55.37 55.33 54.64 54.34 53.95 53.10 52.86 52.31 51.71 54.23 55.77 56.85 58.93 61.76 62.68 62.34 62.62 63.15 63.07 63.19 63.36 62.71 62.51 62.79 62.87 62.03 62.79 62.50 62.75 62.76 62.97 62.41 62.18
55.09 54.87 54.54 55.05 54.68 54.08 54.54 55.01 55.21 54.91 54.74 54.57 54.93 54.75 54.19 53.31 53.95 54.16 54.73 53.87 56.28 54.95 58.56 60.36 61.84 61.26 62.54 62.08 62.70 62.67 63.85 63.25 62.78 62.39 62.11 62.36 60.76 60.83 61.64 62.25 62.38 63.15 63.32 63.21
55.01 54.38 53.88 54.04 53.77 53.71 54.70 54.38 54.56 54.54 54.01 54.12 54.54 54.37 54.09 55.04 55.42 54.02 55.19 57.92 57.15 56.58 59.22 62.10 60.19 59.03 59.41 62.35 63.15 63.18 62.41 63.47 63.74 63.81 63.06 61.83 61.56 61.32 61.31 60.93 61.39 62.67 62.80 63.30
53.52 53.29 53.49 53.64 53.86 53.20 51.64 52.26 53.60 54.25 55.07 55.49 55.84 55.42 54.90 54.54 56.54 57.16 57.79 56.46 54.74 55.11 59.50 60.49 60.20 56.08 57.55 63.19 63.65 63.58 63.44 63.55 64.17 63.79 63.69 54.42 61.85 61.25 60.09 60.28 60.23 61.65 62.04 60.83
52.88 53.12 53.16 52.31 51.58 51.33 51.53 52.13 52.61 53.68 54.97 55.75 55.44 56.56 57.12 57.24 56.86 58.33 57.98 58.70 54.95 58.69 59.78 55.49 55.35 54.63 61.94 63.41 64.10 63.18 63.27 63.07 61.75 61.28 60.87 60.08 59.79 59.98 58.53 58.70 58.07 57.12 55.92 55.46
52.47 51.55 52.23 52.21 51.71 51.66 51.70 51.84 51.72 54.43 55.52 55.06 55.94 57.28 57.08 57.72 57.94 58.23 58.96 57.47 58.41 56.30 58.41 58.27 58.45 58.15 58.19 58.97 58.29 57.35 57.51 58.11 58.28 58.89 58.24 56.80 55.26 53.44 52.82 52.36 51.82 51.44 51.86 51.97
52.10 49.29 51.36 51.18 51.63 52.13 52.02 52.08 53.77 53.19 54.55 55.46 54.80 56.40 57.48 58.09 57.00 56.66 54.49 56.20 55.66 55.50 55.16 55.60 55.52 54.88 55.42 55.42 55.30 54.70 53.13 52.53 50.17 53.04 53.42 51.94 51.70 51.58 51.34 50.86 50.32 50.34 50.14 49.90

GFSNGP_sfc_wetblb_201.txt.gz
Wetbulb
46.17 46.93 47.50 47.53 47.30 47.14 46.63 49.45 47.86 51.31 51.38 54.36 58.31 58.39 59.12 60.97 61.71 62.48 62.95 63.26 64.82 65.06 67.55 68.37 69.29 70.41 71.13 71.68 72.28 72.78 71.84 71.90 72.50 73.20 73.53 73.18 73.47 73.25 73.15 73.38 73.48 73.79 74.17 74.72
43.55 46.10 45.98 45.79 47.71 48.19 47.83 47.84 48.03 48.82 50.37 58.58 59.77 60.71 60.95 61.54 62.30 62.07 62.74 62.56 63.69 65.16 66.55 67.23 68.38 69.85 70.90 71.75 72.65 72.83 72.81 72.15 72.81 72.93 73.09 73.02 73.44 73.43 73.89 74.05 74.30 74.68 74.34 74.90
41.01 43.82 45.33 42.70 46.69 48.02 48.85 53.36 53.42 48.26 54.03 57.34 57.23 57.95 59.24 59.35 60.36 61.31 62.25 62.82 63.09 63.96 65.47 67.58 69.13 69.25 70.26 71.56 72.37 72.82 72.83 72.44 72.10 72.09 72.38 72.75 73.26 73.25 73.40 74.19 74.56 74.08 74.10 74.42
42.83 43.86 36.87 46.24 52.15 51.33 52.32 54.05 55.89 55.43 55.90 56.67 56.78 58.70 58.71 59.46 59.83 60.45 61.10 61.82 63.48 64.43 65.18 66.54 68.70 70.47 70.11 71.80 72.37 72.18 72.13 72.13 72.41 70.46 69.46 69.68 71.87 73.02 73.27 73.29 73.77 73.71 73.50 74.26
41.32 40.99 43.64 45.82 49.52 49.25 48.29 49.05 53.51 54.51 55.50 55.87 56.53 59.21 60.07 58.83 59.55 59.81 60.26 62.30 63.11 65.17 65.74 66.38 66.58 68.62 70.64 70.96 71.99 72.07 71.98 72.46 73.37 71.23 68.97 70.01 70.99 71.89 72.92 72.93 72.77 72.84 73.39 73.53
41.95 37.24 36.37 45.85 50.11 53.40 52.31 45.82 52.73 52.78 52.49 52.74 54.19 51.98 56.00 56.92 58.76 59.60 60.79 61.08 61.70 63.70 66.04 66.15 66.40 67.94 71.31 70.60 71.40 71.74 72.43 73.16 73.99 72.82 70.24 70.26 72.16 73.47 74.84 74.07 73.99 73.53 73.73 74.46
41.78 40.42 43.73 48.80 50.89 53.17 43.81 46.43 53.20 52.93 53.32 52.96 51.40 53.04 55.31 57.38 57.90 59.58 60.22 60.81 61.72 62.51 64.46 66.49 66.64 67.45 68.41 71.17 71.16 72.97 73.76 73.92 74.28 74.40 73.40 73.25 72.10 71.46 72.35 74.27 74.39 74.12 73.90 74.76
42.12 39.23 36.63 50.61 49.61 44.87 49.69 53.30 53.13 53.29 53.71 53.25 54.18 55.08 55.71 56.47 56.99 58.04 58.73 59.73 61.15 61.00 62.32 65.76 67.51 67.01 66.87 67.67 69.82 73.35 73.84 73.92 74.47 74.50 74.00 73.71 73.58 71.16 72.85 73.98 73.97 74.29 74.08 73.59
43.52 43.70 50.95 52.18 50.64 53.20 54.03 53.07 53.26 53.51 54.67 54.64 54.17 54.42 55.56 55.94 56.83 57.51 58.09 59.24 60.35 60.60 61.72 63.66 65.69 66.69 66.10 67.07 68.17 68.45 71.88 73.50 74.12 74.10 73.99 74.71 73.86 74.14 72.90 74.22 73.26 72.59 71.59 69.72
45.53 48.98 50.05 51.71 53.27 53.78 53.08 52.32 54.56 55.32 54.83 55.08 54.38 55.26 55.26 55.83 56.44 57.05 57.97 58.00 59.36 59.75 60.20 61.22 63.37 64.19 65.03 67.26 67.21 67.91 69.29 71.56 73.59 73.37 73.00 73.52 73.56 74.14 73.62 72.63 72.48 71.34 69.81 68.23
46.78 49.48 51.33 52.47 53.75 54.39 54.39 54.89 53.86 54.26 53.53 53.76 55.01 55.45 55.87 55.72 56.37 57.07 57.62 58.24 58.48 58.85 59.10 60.19 62.40 62.58 64.00 65.63 67.58 66.11 69.39 70.71 71.05 72.22 69.61 60.17 57.66 58.28 65.99 66.61 65.88 71.83 71.24 69.07
45.41 51.52 51.71 51.78 54.26 54.92 52.64 53.87 54.30 52.99 53.66 55.81 56.33 54.70 54.98 55.46 56.73 56.94 56.92 57.95 57.52 57.96 58.84 59.68 60.65 62.08 62.91 65.10 67.23 66.20 67.34 70.13 68.93 64.52 63.93 64.97 65.09 61.23 50.87 51.60 47.61 49.44 54.52 65.50
50.25 53.75 53.40 53.73 54.30 55.14 54.56 55.45 56.21 55.25 54.93 54.31 56.74 56.85 56.16 56.49 56.84 56.23 56.88 57.18 57.22 57.38 58.17 58.95 59.80 61.16 62.56 64.77 66.93 65.43 66.40 69.41 68.28 64.91 66.69 66.34 65.74 63.36 62.11 54.37 47.23 45.60 46.72 50.17
54.60 53.78 51.81 55.04 53.37 55.93 55.55 56.62 56.31 56.00 55.99 55.60 57.41 58.40 56.80 55.71 56.05 55.61 56.18 57.17 57.79 57.76 57.90 58.51 59.08 60.26 62.84 64.87 67.15 65.91 66.82 60.66 69.67 67.76 68.50 67.75 65.39 63.42 62.23 60.98 61.04 61.58 47.27 51.32
54.56 55.30 54.60 56.34 56.78 56.80 57.50 57.14 55.34 55.06 55.97 56.62 57.75 56.99 56.59 55.47 55.31 55.29 57.04 57.89 57.40 57.21 57.30 58.14 58.61 60.38 63.51 65.53 66.87 66.25 64.72 67.26 68.46 68.76 68.77 66.29 66.41 64.48 64.11 64.60 66.95 64.59 57.58 50.52
54.89 54.20 55.06 55.50 55.65 55.97 55.97 55.54 54.83 55.02 56.17 56.81 56.29 56.91 57.58 57.64 56.36 56.42 56.59 57.32 56.36 55.88 57.31 58.06 58.66 60.78 62.80 65.61 66.80 66.88 66.70 63.23 64.53 67.59 68.44 67.87 65.54 65.18 64.67 65.66 67.43 64.49 64.50 64.70
53.07 52.47 53.74 53.12 53.86 54.77 55.04 55.91 55.36 55.37 55.93 56.16 56.96 57.76 57.59 57.37 57.31 56.40 56.94 57.89 57.77 57.56 58.15 58.57 58.77 61.03 62.33 64.98 66.60 66.80 66.66 67.07 65.08 67.11 68.45 67.66 65.96 64.97 65.61 66.81 67.35 67.07 66.16 63.55
55.29 55.59 55.99 54.88 54.33 54.14 55.36 55.61 55.91 55.26 55.05 56.00 57.65 57.88 57.67 57.02 56.01 56.23 56.40 57.24 57.91 57.42 58.13 59.25 59.93 60.39 61.86 64.46 66.62 66.93 66.35 66.47 66.68 66.62 67.23 66.99 66.86 66.64 67.63 67.65 67.78 67.31 66.87 59.39
57.20 55.99 55.84 56.09 56.86 56.11 55.52 55.73 55.73 55.48 55.77 56.81 56.92 56.24 57.88 57.48 57.09 55.59 56.14 56.25 56.94 56.73 58.43 60.33 59.53 61.22 63.20 64.94 65.74 66.64 65.92 65.51 65.96 65.43 65.64 63.50 65.10 66.69 67.24 67.65 67.49 67.25 66.20 60.82
55.85 56.20 56.44 56.34 56.43 55.72 55.28 55.87 55.80 55.18 55.98 56.07 56.82 56.64 56.95 56.81 56.70 55.81 56.17 56.15 57.22 58.13 59.91 59.70 61.06 61.97 65.37 65.80 63.90 65.88 65.60 64.77 64.49 64.76 65.89 63.89 65.54 65.37 66.12 61.22 66.88 67.23 65.17 64.15
54.94 54.93 55.24 55.26 54.68 55.31 55.34 55.58 55.16 53.92 55.12 55.37 55.40 56.55 56.14 56.53 57.46 56.54 55.52 55.45 58.40 59.73 60.00 58.81 59.91 60.73 63.98 65.73 64.95 65.36 64.73 64.39 65.44 64.55 64.60 64.06 63.52 63.89 65.32 66.89 66.71 65.72 63.71 64.74
54.22 54.40 54.39 54.35 54.32 54.16 54.67 54.35 54.98 54.18 54.63 54.95 55.67 56.10 57.93 57.89 58.64 58.92 59.31 57.45 59.79 54.55 60.25 61.95 63.34 61.87 64.34 62.97 66.04 65.81 65.29 64.89 65.82 64.90 63.12 62.80 63.36 64.04 65.86 66.15 65.66 64.95 66.15 66.13
54.37 54.66 54.08 54.49 53.54 53.01 53.52 53.73 53.57 53.80 53.91 55.32 55.88 56.31 57.20 58.35 58.51 56.02 57.17 62.33 62.16 59.20 61.26 62.86 61.01 58.71 58.54 64.27 66.08 65.95 64.96 64.70 64.99 64.02 62.56 62.83 63.10 63.87 65.44 64.73 66.09 66.53 66.80 67.05
54.91 54.18 53.16 53.11 52.73 51.95 51.23 51.95 53.11 54.02 55.30 56.74 58.30 60.01 59.45 58.82 61.24 60.06 61.31 57.19 55.24 58.20 62.40 60.39 60.51 56.59 56.13 64.15 64.81 64.60 64.90 63.49 65.15 63.98 63.67 56.11 62.88 63.06 63.52 65.92 66.47 66.98 66.85 64.14
53.94 52.99 52.30 51.66 51.08 50.84 51.58 52.51 52.98 55.56 57.16 57.40 56.50 57.57 58.24 58.99 58.86 58.81 59.54 59.61 55.31 58.76 60.46 56.51 55.75 55.06 61.94 64.58 64.76 63.82 63.51 63.81 64.38 63.83 62.80 62.98 62.65 62.93 62.91 65.34 65.42 65.22 65.30 65.04
52.75 52.07 51.44 51.68 51.37 52.11 52.40 53.04 53.64 54.49 55.96 55.42 55.44 56.67 57.39 58.25 58.17 58.10 57.89 55.53 56.78 54.93 56.90 57.14 57.89 58.31 59.14 62.15 61.19 60.07 60.05 59.67 58.42 57.90 56.13 55.73 56.12 56.78 57.71 59.71 59.30 58.64 58.17 57.01
53.20 49.49 51.06 50.35 51.99 52.55 51.36 50.57 50.86 50.64 51.42 53.31 52.17 52.87 53.89 54.14 53.32 53.17 52.06 53.91 53.97 54.19 54.17 53.49 53.99 54.13 54.85 54.43 54.19 53.85 53.66 53.88 51.17 52.57 52.45 52.18 51.63 51.54 53.36 53.40 51.61 52.58 53.82 54.33

GFSNGP_sfc_wetblb_204.txt.gz
Wetbulb
50.49 50.05 49.50 48.75 48.34 49.12 49.26 50.86 49.07 51.96 53.38 57.27 60.21 61.72 63.39 65.05 65.66 65.86 66.32 66.66 67.44 68.39 69.65 71.17 72.09 73.15 74.35 74.89 75.33 75.61 75.35 75.07 75.67 75.89 76.49 75.93 76.93 76.02 75.15 74.96 75.05 74.79 74.85 75.69
47.27 48.64 48.44 46.89 48.03 48.29 48.97 49.28 49.38 49.90 50.67 57.48 61.32 63.07 63.87 63.61 64.25 64.45 65.11 65.71 66.93 67.97 68.75 69.97 71.35 72.01 73.06 74.43 75.12 75.80 75.06 74.58 75.38 76.31 76.84 76.95 76.82 75.37 76.29 75.21 74.84 74.77 74.25 75.01
45.44 48.54 48.28 45.36 49.51 50.04 51.79 53.03 54.60 51.02 57.20 60.28 59.76 60.02 61.25 62.19 62.85 62.94 63.91 65.14 65.66 67.08 68.20 68.92 69.90 72.17 72.59 73.09 75.19 75.31 75.32 75.43 75.40 75.69 76.12 77.03 76.46 76.11 75.72 75.27 75.79 75.09 74.71 75.10
46.12 47.70 41.06 50.52 54.68 53.91 52.30 55.40 56.92 57.44 58.41 59.15 59.09 60.26 61.44 61.28 60.67 61.52 62.38 63.07 64.96 66.04 67.42 69.01 69.39 70.18 73.56 73.79 74.23 74.79 74.95 75.23 75.48 75.70 75.36 75.83 75.88 75.68 76.21 75.96 75.61 75.13 75.32 76.29
44.54 44.45 47.26 48.44 51.86 51.69 51.15 51.55 55.94 55.44 56.79 57.49 58.60 59.56 61.84 60.97 60.57 60.99 61.83 62.89 63.72 65.32 66.63 68.69 69.29 70.29 71.09 74.26 73.39 73.74 73.99 74.10 75.03 75.23 74.90 75.36 75.85 76.37 76.67 76.23 75.44 75.50 75.62 75.98
45.92 41.19 38.74 49.98 52.52 55.05 54.90 47.51 55.09 55.09 54.80 54.83 55.98 53.29 56.21 60.08 60.49 60.88 61.73 62.48 62.74 63.84 65.22 67.47 69.36 69.90 70.34 71.44 73.08 72.59 73.25 73.86 75.37 75.33 74.85 74.78 74.86 75.17 75.89 76.04 75.63 75.12 75.06 75.56
44.00 42.25 45.32 52.90 53.44 54.37 45.34 47.96 55.05 55.30 55.13 55.01 53.62 55.66 58.02 59.42 59.99 61.17 61.72 62.22 62.96 63.07 63.48 65.56 67.63 69.50 69.29 70.06 70.62 73.16 74.61 75.11 75.34 75.74 75.52 75.24 74.71 74.56 74.85 74.66 75.59 75.56 75.57 75.09
45.69 42.50 40.46 53.28 52.53 47.74 52.58 55.59 55.95 56.45 56.83 56.33 57.26 58.04 58.68 59.57 59.78 60.10 60.24 61.26 62.34 62.41 62.68 64.28 66.34 67.01 67.43 69.28 70.46 71.71 71.98 75.00 75.30 76.17 75.29 75.29 74.78 74.23 74.91 75.20 75.64 74.55 75.26 75.37
47.44 47.55 54.41 55.52 54.72 56.59 56.76 55.97 56.45 56.49 57.29 57.71 57.32 57.61 58.47 58.42 59.64 60.52 60.91 61.25 61.89 61.92 62.71 63.57 64.90 66.13 65.37 67.43 69.76 70.60 70.87 71.54 75.23 76.28 76.02 75.87 75.37 74.06 73.16 72.72 67.54 65.14 63.89 69.49
49.66 52.19 53.42 55.03 56.81 57.49 57.91 57.42 58.38 58.59 58.56 58.57 57.27 57.38 57.41 58.32 58.87 60.21 61.29 60.98 61.97 61.86 61.62 62.40 64.32 65.02 66.20 66.85 67.96 70.32 69.37 71.30 72.56 74.73 74.01 75.00 75.12 75.41 74.11 71.83 68.31 64.76 63.52 65.05
50.42 53.27 54.82 55.73 56.76 57.38 57.81 58.59 58.17 58.89 59.12 58.95 58.70 57.94 58.12 57.69 59.17 60.11 60.50 61.38 61.69 61.54 61.49 62.01 63.66 64.17 65.32 66.27 67.13 68.05 69.39 70.62 71.63 72.72 71.21 72.82 72.19 75.21 76.44 76.55 72.06 73.59 74.19 74.63
47.77 54.16 54.36 55.07 57.29 58.40 57.72 57.91 58.62 58.12 58.31 59.78 59.78 57.85 57.49 58.38 58.62 59.77 59.49 60.40 61.01 60.99 61.74 61.90 62.46 63.45 64.83 65.96 66.70 66.74 68.16 67.55 69.67 68.78 65.45 64.25 66.34 67.74 55.54 56.09 52.46 53.55 57.54 68.24
53.33 56.72 56.66 57.21 58.36 58.89 58.17 59.35 59.92 59.39 59.09 57.79 59.02 58.36 58.71 56.37 58.65 59.32 60.23 59.69 60.06 60.41 61.46 62.15 62.10 62.40 63.85 65.10 65.91 66.36 67.70 68.48 68.46 66.15 66.73 68.88 69.26 66.42 65.73 59.43 49.20 48.11 47.37 53.91
57.14 57.26 56.01 57.68 56.89 59.46 59.32 59.71 59.43 59.81 59.65 59.28 58.37 59.59 59.02 59.79 60.46 60.51 60.20 59.36 59.64 59.53 59.40 60.81 61.63 61.99 63.68 64.60 65.46 66.01 67.54 59.59 67.68 69.28 68.47 70.25 69.03 67.61 67.79 63.17 60.16 63.29 53.56 50.57
56.55 58.06 58.29 59.34 59.86 59.54 60.01 58.73 57.50 55.89 57.75 56.93 57.21 57.07 58.01 57.77 57.77 58.35 60.66 61.68 59.55 58.45 59.17 60.05 60.76 61.46 63.50 64.21 64.66 65.67 66.71 67.85 68.13 68.64 69.37 68.83 69.66 68.35 66.49 65.54 65.19 65.08 60.31 53.26
57.07 58.28 58.61 57.84 58.01 58.57 57.27 57.63 56.37 56.90 56.43 57.50 56.85 56.61 59.08 60.59 60.07 59.45 59.56 60.47 58.51 56.64 58.78 59.61 60.18 61.84 63.28 63.89 64.49 65.40 66.34 63.56 63.83 68.90 68.85 69.21 69.32 68.54 66.69 65.96 66.36 68.30 65.70 66.49
56.02 55.73 56.93 55.78 55.16 55.18 56.16 57.11 57.41 57.74 57.46 58.03 55.78 57.03 58.86 58.83 58.99 59.16 60.33 58.96 60.75 59.26 59.16 60.86 61.05 63.18 63.36 63.94 64.32 64.53 65.60 66.99 65.61 68.58 68.43 67.72 67.73 68.38 68.41 67.25 67.45 68.13 68.96 68.25
59.17 58.97 57.85 56.83 55.75 56.01 57.17 57.59 56.52 56.84 56.22 57.05 56.68 56.94 59.36 58.58 58.75 60.33 60.19 60.17 59.38 59.42 60.13 61.66 62.77 62.83 63.51 63.48 64.00 64.57 66.05 67.24 67.95 68.35 68.81 67.55 68.63 69.42 68.58 68.95 68.61 68.64 69.57 61.70
59.41 58.26 57.37 57.04 57.10 57.16 56.66 56.93 55.80 55.93 55.99 55.74 55.89 55.81 56.92 58.39 60.38 60.34 60.49 58.26 56.21 57.01 59.61 62.11 60.91 61.45 62.64 62.88 62.71 64.60 66.64 67.31 67.63 67.59 67.20 64.81 67.98 69.22 68.42 67.48 67.95 68.16 68.56 65.69
58.27 58.49 57.06 56.21 58.22 57.26 56.36 57.59 56.43 55.31 56.13 56.48 55.76 56.17 55.43 57.81 59.46 59.57 59.16 56.69 58.44 58.90 61.12 61.00 62.58 62.68 65.03 66.33 63.52 65.97 66.08 67.29 67.19 66.45 67.74 67.89 67.66 67.63 66.33 60.70 66.07 68.91 68.42 67.87
58.26 56.43 55.73 56.05 55.96 56.63 56.19 55.49 54.26 53.88 55.19 55.42 54.98 55.85 56.77 58.58 60.24 60.45 58.74 57.51 61.16 61.43 61.91 60.53 62.03 62.25 63.66 64.98 66.40 67.23 65.47 65.77 66.26 66.00 65.80 66.76 67.09 67.22 67.15 68.51 65.95 67.95 68.43 68.73
56.54 55.63 55.81 54.80 52.65 52.43 53.16 54.18 54.27 54.35 54.20 55.07 56.25 57.10 57.91 59.27 60.84 57.95 60.48 59.23 63.33 55.48 61.39 62.65 62.65 61.34 63.65 63.86 67.82 67.15 67.10 66.65 66.25 66.99 66.57 67.14 66.81 66.26 67.13 67.94 67.77 67.09 68.54 68.01
56.45 55.53 54.52 53.24 52.41 52.06 53.23 53.41 53.84 54.37 54.94 56.12 56.59 57.83 59.12 59.66 61.45 59.84 58.84 62.37 62.83 59.12 61.55 61.51 58.71 57.86 58.33 65.10 66.73 67.17 67.20 66.62 66.73 67.35 66.95 67.14 66.82 66.73 67.14 67.85 68.89 68.72 66.44 65.99
55.35 54.36 52.88 53.11 52.93 52.34 51.78 53.02 54.60 56.11 58.15 58.06 58.10 58.54 58.49 59.59 62.06 60.57 61.20 57.35 55.24 58.17 61.19 59.86 59.88 56.89 55.30 66.39 67.27 67.15 67.04 66.65 66.95 67.36 66.88 58.05 65.81 65.41 67.00 65.57 65.41 65.06 65.16 63.96
53.77 52.81 52.05 52.06 51.36 51.49 51.97 52.19 53.71 53.72 55.72 56.21 55.70 56.89 57.32 58.65 57.77 58.95 58.92 58.76 54.53 57.46 59.50 56.09 56.13 56.81 65.09 67.13 65.89 66.80 67.68 67.25 66.35 66.19 65.15 63.35 63.17 63.27 63.58 64.64 64.78 64.82 65.59 67.21
53.30 51.41 51.63 51.62 52.42 51.55 50.79 50.86 50.78 50.97 51.72 52.58 52.66 53.39 54.33 54.73 55.18 54.98 55.16 53.38 54.51 53.32 54.34 54.64 55.34 57.67 56.89 57.25 59.59 61.54 60.99 58.53 57.54 56.69 56.81 57.52 58.42 59.12 58.90 60.08 61.91 62.63 63.17 64.66
54.37 49.60 51.68 51.66 52.21 51.35 50.45 49.35 49.04 48.86 49.32 50.54 49.95 50.77 51.69 51.78 51.94 51.84 50.41 51.75 52.05 52.44 52.03 52.31 51.72 51.96 52.04 51.56 52.35 53.32 53.35 51.92 48.73 52.18 52.47 52.67 52.67 52.51 53.25 55.79 56.45 57.51 59.90 59.33

GFSNGP_sfc_wetblb_207.txt.gz
Wetbulb
52.15 52.04 51.85 50.67 49.82 50.24 49.82 50.71 48.48 50.58 51.05 54.48 56.99 62.24 64.26 65.69 66.27 66.61 66.82 67.37 68.47 69.27 70.55 72.32 73.57 74.32 75.49 75.96 76.58 77.05 78.41 78.60 78.72 78.90 79.01 78.67 78.59 78.13 77.60 77.40 76.95 77.46 77.29 76.96
49.66 51.31 51.27 49.08 50.37 50.28 50.07 50.00 50.01 50.67 50.95 60.05 62.17 63.39 63.53 64.51 64.89 64.82 65.20 66.30 67.34 68.54 69.71 70.22 71.42 72.82 74.17 75.21 76.31 77.24 77.71 77.49 79.20 80.06 79.48 79.39 79.34 78.98 77.92 77.66 77.69 77.88 76.68 76.66
47.74 51.16 50.42 48.00 51.67 51.90 52.03 53.33 54.37 51.21 58.23 61.14 60.62 60.88 62.28 62.39 63.12 63.01 63.47 64.26 65.25 66.89 67.95 69.50 70.57 71.37 71.18 74.52 75.71 76.90 77.37 77.83 78.86 79.09 78.83 79.02 79.09 79.05 78.19 77.86 77.42 77.55 76.93 76.76
48.21 50.27 43.35 52.23 55.53 54.28 52.42 53.30 54.64 56.43 58.03 59.19 59.55 60.61 61.81 62.80 61.38 61.70 62.24 62.98 64.20 65.03 66.28 68.51 70.18 70.83 71.60 73.35 74.67 75.51 74.98 75.88 78.25 78.61 78.17 78.71 78.74 78.45 78.02 77.81 77.40 77.03 76.94 77.04
47.11 47.01 49.40 49.94 54.19 53.23 52.40 51.56 55.20 56.42 57.24 57.68 58.52 58.56 59.38 63.86 63.04 62.40 62.61 63.33 63.90 64.92 65.27 67.29 68.78 70.87 71.08 72.07 74.22 68.41 66.59 68.79 73.89 76.65 77.51 77.54 77.92 78.03 78.31 77.70 77.65 77.49 77.63 77.75
48.15 43.89 41.78 51.07 54.16 55.23 54.91 46.92 57.22 56.55 56.32 56.32 57.25 52.97 57.69 60.34 61.04 61.24 62.22 62.84 63.38 64.50 64.65 65.14 67.12 68.78 70.21 70.50 71.82 72.83 70.61 71.91 73.15 77.54 76.89 76.16 77.55 78.37 78.73 78.56 78.03 76.83 77.27 78.16
47.81 45.48 47.57 54.40 54.12 54.58 44.67 49.03 56.25 56.71 56.75 56.89 55.54 57.16 59.54 60.98 61.23 62.10 62.46 62.82 63.39 63.31 63.75 65.01 65.95 67.03 67.84 69.16 70.27 72.03 73.44 73.89 75.01 76.51 76.13 76.23 77.94 76.64 76.47 77.52 77.48 76.01 77.79 78.10
47.58 44.82 43.27 56.10 54.64 49.43 54.25 56.92 57.26 57.57 58.05 57.54 58.45 59.21 59.79 60.51 60.96 61.59 61.79 62.36 63.19 63.13 62.95 64.23 65.75 65.48 66.34 67.39 69.63 71.48 72.48 72.89 75.16 76.77 75.94 75.01 77.07 75.32 77.09 76.91 76.71 77.28 77.06 76.25
49.62 49.88 55.57 56.56 56.08 58.01 58.41 57.76 58.35 58.40 58.87 58.38 58.27 58.59 59.83 60.19 61.07 61.19 61.62 62.22 63.02 63.31 63.42 64.20 64.96 65.56 64.84 68.37 69.08 69.62 70.40 71.67 72.06 75.04 76.35 75.94 74.18 75.21 73.65 76.10 73.92 73.80 75.13 75.39
51.23 53.78 55.11 56.64 57.73 57.25 58.34 57.23 58.30 58.19 57.75 58.59 57.87 57.92 59.04 60.37 60.55 61.03 61.53 60.80 62.85 63.43 62.89 64.51 66.04 65.41 66.78 68.96 69.06 68.34 68.51 70.48 71.28 72.48 73.30 75.79 75.12 75.85 73.83 73.26 73.06 72.56 73.36 72.81
52.06 54.36 55.82 56.28 56.73 58.38 57.91 58.13 58.38 58.78 59.04 59.32 58.57 58.25 58.91 59.12 59.77 61.32 61.50 61.34 62.50 62.01 62.77 63.35 65.48 66.33 65.23 67.50 67.99 66.11 67.63 67.94 70.08 70.83 72.99 74.25 74.00 75.27 72.31 74.64 71.06 72.88 70.72 70.12
49.58 54.80 54.55 55.56 57.80 58.69 57.26 57.63 59.12 58.43 58.17 59.58 60.18 60.00 60.19 59.97 60.97 61.21 61.00 61.76 61.31 62.84 62.49 62.63 62.90 63.65 66.75 66.71 67.67 65.98 65.54 66.00 67.62 70.35 71.50 71.15 69.94 67.84 55.58 54.31 54.67 53.22 55.04 63.50
54.81 57.43 55.60 57.36 57.95 58.90 57.78 58.48 59.09 59.19 60.07 58.82 59.72 59.99 60.04 60.11 60.72 59.76 61.45 61.46 62.07 61.44 62.72 63.03 62.66 62.76 64.61 66.89 66.28 65.59 65.00 66.20 66.99 67.46 69.48 68.02 68.79 65.98 67.23 60.13 52.68 52.48 55.52 55.76
58.38 57.18 55.48 56.39 56.26 58.78 59.23 59.28 59.21 60.19 61.10 60.23 59.92 60.46 59.81 60.17 60.14 59.67 59.07 61.88 62.49 61.41 62.80 62.87 62.38 62.37 64.20 65.30 66.81 65.34 65.34 58.24 65.63 67.20 69.04 68.87 69.74 67.80 65.94 65.68 65.37 68.32 52.05 53.40
56.46 57.94 57.98 58.43 58.39 58.83 59.78 59.58 58.67 58.53 58.60 59.66 60.01 59.99 59.70 59.38 58.61 59.84 61.72 62.94 62.98 62.40 61.89 62.77 61.52 62.19 63.55 63.47 65.37 64.81 64.67 64.66 65.67 67.14 67.60 67.97 70.72 66.99 66.38 63.43 67.03 70.56 62.68 54.48
57.59 58.36 58.27 57.63 58.51 58.65 59.67 59.19 57.82 57.98 58.42 58.54 58.51 58.77 59.17 59.33 59.78 60.87 61.13 61.57 60.28 61.22 61.83 62.32 61.33 62.44 63.56 63.80 64.68 63.83 64.36 61.33 61.83 66.37 67.24 67.21 68.56 68.29 67.20 67.80 67.44 67.28 65.82 65.63
56.60 55.98 57.55 57.43 57.91 58.35 57.94 58.62 58.18 58.19 57.82 58.86 56.88 56.82 56.42 56.82 59.49 59.81 61.39 61.95 62.38 62.94 63.08 62.45 62.68 63.40 63.74 63.02 63.07 63.11 63.61 64.15 63.10 65.18 65.80 66.11 67.36 67.84 68.82 69.11 68.67 66.95 67.99 67.09
59.15 59.86 59.76 59.60 58.33 57.57 57.35 58.13 58.66 58.71 58.38 58.48 58.70 56.24 55.47 56.13 58.43 58.92 60.39 60.06 60.98 61.98 62.79 63.85 63.27 63.35 63.23 63.59 63.28 63.90 63.73 64.15 64.53 64.69 66.03 66.59 67.87 68.33 68.97 69.24 69.19 68.21 68.53 61.83
59.71 59.52 60.21 59.65 58.01 57.16 57.73 57.01 56.56 57.17 57.18 56.27 55.75 55.73 57.70 58.05 57.78 58.91 60.04 60.42 60.33 60.25 61.20 63.60 61.44 61.64 62.72 62.63 62.72 64.27 64.00 64.08 64.33 64.78 66.27 64.28 68.41 68.37 69.42 68.43 68.91 68.85 69.01 62.45
59.65 60.17 59.74 58.10 57.68 56.24 53.72 53.85 53.95 54.09 55.84 55.65 55.71 55.92 55.90 55.87 58.86 60.41 61.25 60.08 61.24 59.99 61.07 62.60 62.08 62.16 63.00 63.69 62.48 63.16 63.56 63.78 64.15 64.45 65.82 68.12 67.38 67.47 68.37 63.45 67.57 68.03 66.53 65.44
59.01 58.62 56.86 56.31 54.81 54.87 54.13 54.13 53.94 53.66 54.61 55.44 55.26 55.32 56.57 58.31 60.02 58.38 59.02 61.38 62.57 63.21 62.19 61.41 61.82 62.72 63.78 64.23 64.69 63.79 63.17 63.84 64.83 65.35 67.13 67.36 66.58 67.78 68.07 68.31 68.65 68.88 69.57 67.10
58.50 57.01 55.12 54.14 52.92 52.52 53.49 54.09 54.74 55.06 55.59 55.84 57.14 57.95 58.46 58.87 60.53 60.76 58.71 60.18 63.92 59.09 61.92 62.92 63.45 61.08 63.11 61.52 67.09 66.87 66.69 66.38 67.60 68.37 66.79 66.77 66.11 66.55 67.93 67.96 67.90 68.40 69.21 70.81
54.87 53.68 53.00 52.05 52.43 52.49 54.09 53.58 53.83 55.57 55.35 57.08 57.49 57.59 57.81 60.17 62.03 59.69 58.15 60.41 60.03 59.09 64.45 63.76 59.17 57.69 57.97 63.71 65.89 65.27 66.17 66.83 66.83 67.15 67.72 67.99 67.14 66.82 68.08 67.88 68.28 68.01 69.56 70.50
55.15 52.71 52.51 53.01 53.47 52.12 50.48 51.17 53.19 53.07 53.80 55.29 54.44 55.26 55.43 55.29 59.92 57.90 58.63 56.54 53.48 55.53 57.35 56.15 57.98 55.39 55.18 65.34 66.33 66.26 66.13 65.99 66.37 67.04 67.62 58.63 67.83 67.95 67.53 67.13 67.66 68.27 70.16 67.31
54.01 53.18 52.74 51.75 50.77 49.85 50.15 50.71 50.70 50.19 51.06 52.37 51.49 52.46 53.12 53.85 53.26 53.35 54.09 54.36 52.41 54.08 55.38 53.81 54.36 55.57 62.00 64.75 67.62 68.11 67.75 68.01 67.05 67.32 67.86 67.95 67.58 68.14 67.85 67.17 68.04 68.56 69.41 66.98
54.93 52.98 52.10 51.95 50.94 50.58 50.19 50.07 49.38 49.53 49.52 49.57 50.09 50.48 51.06 51.42 51.34 51.35 51.63 51.52 51.82 50.70 51.63 51.59 52.12 53.61 53.86 54.05 55.16 55.95 56.19 56.75 57.10 56.88 60.87 61.65 61.17 59.61 60.11 65.39 67.36 64.61 63.90 62.52
53.95 50.66 53.72 51.49 51.15 50.84 50.19 49.83 49.29 48.79 48.59 48.70 48.14 49.36 49.57 49.80 49.66 49.55 49.04 50.03 50.29 50.26 50.34 50.59 49.93 50.43 50.47 49.77 49.86 49.42 49.93 50.55 47.46 50.68 51.92 52.13 53.13 54.60 54.65 55.29 55.99 55.89 55.43 57.14

GFSNGP_sfc_wetblb_210.txt.gz
Wetbulb
51.75 52.17 51.82 50.64 50.13 50.49 49.45 50.01 47.55 49.37 49.62 53.20 60.41 62.02 63.65 65.06 65.68 65.72 65.83 66.49 67.53 68.37 70.88 72.33 73.18 74.35 75.75 76.57 76.68 78.38 79.91 76.73 76.77 77.28 77.32 77.57 77.01 76.90 76.17 75.94 75.89 76.06 75.59 75.72
50.13 51.98 51.67 50.11 51.45 51.06 50.84 50.62 50.11 50.07 50.38 61.06 62.29 62.89 62.48 62.61 63.22 63.26 63.66 64.31 65.53 67.07 68.40 69.99 71.78 72.53 73.26 73.81 76.30 78.27 77.90 77.63 78.53 78.51 77.81 77.02 77.27 76.92 76.64 76.36 75.89 75.73 75.17 75.34
47.34 51.26 51.00 47.96 51.34 52.45 52.96 53.35 52.53 51.00 56.90 59.81 58.99 59.75 60.06 60.65 61.72 61.96 62.26 62.90 63.66 64.55 66.56 68.31 69.48 71.96 71.34 72.79 75.73 76.31 77.58 76.42 76.14 78.99 77.94 76.38 76.67 76.78 76.47 75.96 76.03 75.46 75.34 74.86
48.21 50.62 43.43 51.98 55.57 54.86 52.50 53.16 54.06 54.87 57.28 58.09 58.04 58.89 59.22 60.20 61.68 61.76 62.02 62.49 63.61 63.64 64.93 66.38 67.07 69.27 71.25 72.40 73.36 75.87 75.39 76.21 77.49 77.24 76.66 76.97 75.52 75.67 76.30 76.46 75.79 75.27 75.42 75.31
47.00 46.76 49.87 50.86 54.28 53.74 52.54 52.15 55.66 55.14 56.83 57.33 58.03 57.99 57.26 63.35 61.96 61.31 61.62 62.20 63.57 64.77 65.69 67.98 67.26 68.77 69.88 70.90 72.31 74.36 74.36 71.16 69.94 69.48 67.04 66.89 70.62 73.83 75.11 75.68 75.72 75.34 75.53 75.60
48.37 43.90 41.99 51.61 54.75 55.67 54.21 46.67 56.14 56.23 55.76 56.06 56.83 51.71 54.66 59.48 60.05 60.19 61.37 62.27 63.29 63.65 64.36 64.24 66.60 67.77 67.76 68.79 69.86 71.23 74.18 73.44 69.91 68.67 64.95 64.66 64.61 65.06 71.99 75.13 75.61 75.92 75.31 75.69
48.37 46.39 48.52 54.23 54.77 55.53 45.20 48.03 55.89 56.34 56.50 56.20 54.57 56.13 59.30 60.77 62.03 61.77 62.49 63.47 64.27 64.53 63.70 65.00 66.28 66.05 66.99 67.52 67.89 70.43 71.84 73.22 73.59 72.00 64.54 63.21 61.46 61.82 63.65 73.52 74.81 74.94 75.36 75.60
48.04 45.06 42.99 56.34 55.45 50.20 54.73 56.77 57.02 57.45 57.78 57.38 58.23 59.26 59.93 60.63 61.05 61.77 62.33 63.39 64.10 63.02 63.72 65.13 65.72 66.06 65.72 66.76 68.94 71.13 70.88 70.78 71.11 71.82 71.76 66.68 63.46 64.10 67.77 73.43 73.91 73.99 74.26 74.71
49.09 48.68 56.71 56.73 55.51 57.88 58.15 57.25 57.59 57.60 57.92 58.25 58.10 58.05 59.32 60.03 60.73 61.65 62.18 62.93 62.99 63.08 63.00 64.51 65.19 66.95 65.12 66.94 69.47 69.86 69.79 69.36 69.62 71.14 71.38 72.67 71.74 71.88 71.91 73.99 73.71 73.26 73.14 73.22
51.07 53.57 55.00 56.36 57.66 58.64 58.53 57.04 58.89 58.60 58.47 58.83 57.37 58.22 58.57 59.51 60.93 61.07 61.72 61.68 62.72 61.86 62.82 62.99 64.97 65.58 66.11 67.70 67.90 67.81 67.97 68.17 68.68 68.49 70.13 72.96 74.39 73.98 73.24 72.68 72.89 72.92 72.46 72.43
51.73 54.06 55.33 56.67 57.51 58.10 58.16 58.25 59.06 59.19 58.97 59.10 59.07 58.88 59.57 60.18 61.31 61.86 62.01 61.87 62.75 62.38 62.21 62.71 64.02 64.22 65.39 65.94 66.79 65.90 66.58 66.89 67.29 67.68 68.92 70.90 73.83 72.29 71.95 71.75 62.12 61.80 67.04 72.12
49.41 55.60 56.14 56.11 57.75 58.51 57.77 57.83 58.37 58.47 59.18 59.70 58.93 58.56 59.55 60.23 60.69 60.83 61.40 62.12 61.75 62.33 62.48 62.59 63.59 64.28 65.00 65.83 65.79 65.39 64.91 64.77 65.30 65.76 66.56 73.79 71.26 70.31 54.79 57.15 57.51 54.79 56.06 57.83
55.07 57.62 57.44 57.84 58.30 59.02 57.94 58.72 59.13 58.55 59.15 59.37 60.35 58.91 59.94 59.66 60.71 59.60 61.48 61.63 61.46 61.56 62.30 63.03 63.49 63.96 65.12 65.37 65.46 64.09 63.91 64.63 65.35 63.25 65.50 69.26 69.49 69.41 64.98 58.21 53.52 53.34 54.25 55.15
57.98 57.74 55.67 56.68 56.01 58.77 59.02 59.12 59.58 59.54 59.14 60.03 59.61 60.25 59.34 58.88 60.65 61.00 60.58 61.56 62.14 62.23 61.63 63.56 63.73 63.35 65.19 65.64 64.80 64.07 63.89 58.39 63.94 64.37 64.96 68.07 70.19 69.57 68.05 65.24 60.26 59.80 49.71 57.25
56.59 57.79 56.91 58.33 59.37 58.50 58.82 59.60 58.34 56.84 58.27 58.07 60.11 59.81 60.23 59.22 59.36 60.22 61.14 61.21 62.12 62.06 62.10 62.39 61.35 63.39 65.45 65.45 63.89 63.73 63.59 63.40 64.32 64.92 65.62 64.45 69.99 70.12 69.55 66.48 64.24 63.45 57.83 52.62
57.17 56.92 57.30 57.26 57.77 58.51 59.03 58.18 56.40 57.49 58.91 58.19 58.90 59.41 59.23 59.96 59.55 59.30 59.71 59.77 60.57 59.55 61.60 62.49 62.25 63.82 65.04 64.88 63.71 63.45 63.07 60.98 60.87 64.06 64.45 65.59 68.69 69.15 69.01 66.59 61.95 64.26 63.15 63.99
55.53 55.21 56.09 56.34 57.70 57.78 57.95 58.21 57.79 57.46 57.11 56.88 56.93 57.56 57.77 57.75 57.76 57.50 57.71 60.50 61.11 60.90 62.15 62.65 62.67 64.50 65.00 64.87 63.69 62.56 62.73 62.49 62.07 63.40 63.55 64.48 65.63 68.03 68.06 66.67 63.78 64.90 66.05 64.15
59.09 59.13 59.27 58.34 57.43 57.28 56.88 57.24 57.21 56.22 54.66 55.57 56.60 56.13 56.80 56.82 56.72 58.63 59.50 60.29 60.49 61.16 61.98 63.14 63.54 64.10 64.92 63.46 63.69 62.89 62.66 61.80 62.50 63.49 63.86 63.77 64.53 65.12 68.10 67.86 67.01 67.19 66.93 61.87
58.17 57.71 58.35 58.19 57.64 57.40 56.65 55.37 54.47 54.33 54.37 54.82 55.45 55.36 55.94 56.31 57.30 58.22 59.68 58.83 59.75 59.76 61.38 63.02 62.02 62.79 64.15 63.66 63.10 63.30 62.12 61.57 61.80 63.57 64.33 62.71 64.40 67.22 67.54 68.28 68.37 67.98 67.77 59.77
58.98 59.24 58.13 57.50 57.69 55.89 54.33 53.78 53.89 53.81 54.56 55.01 55.21 55.59 55.91 56.79 57.83 57.66 58.57 58.96 60.49 61.27 63.14 62.95 62.69 63.82 64.20 63.70 62.28 61.97 62.04 61.60 60.83 63.04 63.56 64.66 66.70 67.73 68.22 62.46 66.93 67.98 67.94 64.15
58.12 57.11 55.71 54.14 53.03 54.45 54.84 54.17 53.68 53.47 54.25 55.88 55.77 56.24 56.81 58.16 60.56 59.68 59.09 57.01 59.31 59.36 60.44 61.58 63.00 61.91 64.07 63.20 62.85 62.30 62.34 61.52 62.73 63.10 63.58 63.98 64.32 65.82 66.31 66.69 67.61 68.40 67.66 67.50
57.35 55.17 53.07 52.52 52.08 52.54 53.25 52.88 52.52 53.04 52.90 54.32 54.44 54.50 54.65 55.72 58.50 59.38 60.00 56.88 58.70 54.87 59.97 61.67 59.71 58.36 60.23 59.61 61.61 63.05 63.18 61.86 62.39 63.56 63.85 64.06 64.61 66.55 66.30 67.59 66.09 67.49 66.89 67.28
56.21 54.57 52.48 51.82 51.43 51.39 51.58 51.39 51.27 51.04 50.87 52.27 51.27 51.59 51.80 53.02 55.48 52.46 52.23 55.21 55.37 53.65 58.75 57.05 54.27 54.83 55.93 62.65 63.88 63.53 62.72 63.85 63.07 64.70 65.30 67.46 64.83 64.83 66.81 66.94 65.75 67.96 68.16 68.77
55.66 53.18 51.80 52.26 51.15 50.23 49.23 50.42 50.84 50.23 51.06 51.21 50.66 50.85 50.49 49.78 51.29 51.89 52.53 52.33 50.44 51.69 53.73 52.73 52.95 53.25 55.69 62.99 63.85 61.34 59.40 58.83 58.08 60.01 63.29 58.50 67.44 67.05 67.31 66.93 67.03 66.74 66.74 66.76
55.29 53.35 52.07 50.76 50.07 49.86 50.48 50.45 50.05 49.08 49.49 49.58 49.20 49.76 50.24 50.21 49.45 50.10 50.47 50.70 49.87 50.28 50.73 50.54 50.88 51.84 53.91 54.52 55.97 56.71 58.96 59.86 59.56 58.57 61.56 66.22 67.42 67.97 68.93 67.90 67.70 66.97 67.91 70.38
56.19 53.04 52.31 51.69 52.37 52.49 50.81 51.40 49.38 49.07 48.23 47.57 47.98 48.43 48.73 49.16 49.03 49.17 49.59 49.52 50.06 49.48 49.22 49.20 49.43 49.61 49.49 48.88 49.14 49.99 49.33 49.07 52.69 52.21 53.19 55.11 58.52 62.84 65.05 65.96 63.91 65.57 67.75 66.43
53.14 51.74 53.60 51.79 53.13 53.43 53.41 51.74 48.95 48.19 48.22 48.22 47.32 48.38 48.34 48.44 48.21 47.84 47.66 48.23 48.36 47.98 48.35 48.58 48.18 48.42 48.22 47.95 47.66 47.54 47.63 47.70 44.98 47.14 47.36 47.25 49.67 53.01 54.34 53.02 51.60 53.00 56.05 55.55

GFSNGP_sfc_wetblb_216.txt.gz
Wetbulb
41.46 45.77 45.80 45.14 46.30 46.51 41.61 41.32 38.31 44.23 50.65 53.12 55.03 57.85 59.19 60.82 62.06 59.98 59.09 58.94 58.72 58.88 59.11 60.33 61.02 63.24 66.68 68.61 69.40 70.23 70.22 70.76 68.95 71.90 73.10 74.00 73.66 74.02 73.82 73.27 72.68 72.08 71.93 71.96
42.04 47.09 47.28 45.67 47.15 47.34 46.66 48.27 50.46 51.59 50.21 53.92 54.49 53.73 56.34 57.99 58.21 57.60 57.49 58.23 58.28 58.34 58.99 58.75 58.97 59.08 62.77 63.36 65.76 68.05 68.37 70.76 70.68 72.02 72.74 73.13 73.83 73.44 73.26 73.17 73.14 72.50 72.05 71.94
36.93 43.97 44.87 40.82 46.36 47.15 47.54 48.18 50.12 46.45 49.84 52.26 51.06 51.91 53.64 56.34 56.84 56.98 57.54 57.67 56.94 57.21 57.45 57.90 58.22 58.73 58.33 62.07 63.05 64.33 66.24 68.88 69.49 69.42 68.46 68.04 72.14 73.08 72.78 72.82 72.27 72.27 72.07 72.24
37.52 39.30 34.27 43.49 48.85 52.31 50.16 50.78 51.26 51.06 51.39 51.77 51.17 51.60 55.31 55.48 54.15 54.46 56.18 56.45 56.16 56.26 56.97 58.13 59.46 59.20 59.70 60.33 60.58 62.83 63.44 65.90 68.95 67.41 66.27 65.89 65.44 66.47 69.03 71.80 70.96 70.85 71.01 71.20
37.46 36.00 40.58 45.94 48.02 46.49 45.21 45.82 50.78 49.46 51.31 52.50 53.11 54.05 52.42 55.51 55.37 54.45 54.85 55.28 55.83 56.78 57.11 57.19 57.54 58.71 58.04 58.86 59.08 60.35 61.57 63.00 66.44 68.09 67.16 66.22 65.37 64.66 65.23 67.02 68.12 68.44 68.49 66.82
37.58 35.54 34.64 43.41 50.83 52.53 47.90 40.94 51.21 52.05 51.18 51.38 50.99 44.80 48.25 53.36 55.13 55.79 56.32 56.58 56.86 57.55 58.24 57.33 57.81 58.58 58.01 57.57 57.70 58.37 59.78 61.25 65.86 66.40 66.87 66.69 65.83 63.48 62.60 63.90 66.14 67.79 67.87 67.90
38.09 36.96 41.64 48.86 51.18 51.91 39.36 40.36 50.86 52.31 51.11 50.02 47.74 49.91 52.36 54.65 54.92 55.27 55.94 56.73 57.42 57.16 56.57 57.05 57.80 57.95 57.52 57.86 58.40 60.18 61.47 62.37 63.87 65.04 65.42 66.04 65.10 61.35 60.16 60.75 63.35 64.31 66.32 68.19
38.28 36.68 36.22 51.27 50.20 43.86 47.13 49.26 51.78 51.71 51.09 50.50 50.75 52.59 53.45 54.32 54.45 55.35 55.35 56.44 57.26 56.31 56.41 56.91 57.14 57.06 56.87 57.09 59.44 60.27 61.14 61.84 63.06 63.01 64.33 66.27 64.13 63.20 61.20 60.23 60.36 61.26 61.88 62.60
40.69 41.38 47.01 49.58 49.45 50.92 51.62 50.98 50.65 50.72 51.72 52.18 52.12 52.48 53.22 52.93 53.71 54.67 55.23 55.93 57.10 57.17 57.21 56.93 57.55 57.38 57.10 59.12 59.35 59.87 60.12 61.14 62.12 62.12 62.56 63.63 63.09 62.95 61.86 60.65 59.14 60.11 61.72 61.31
43.36 46.32 49.08 50.96 51.56 52.36 51.94 50.51 52.38 52.41 52.87 52.84 51.35 52.42 52.69 53.44 53.65 54.06 54.95 55.33 56.38 55.99 56.16 55.77 56.66 57.25 57.79 59.08 59.87 59.26 59.69 60.15 59.97 60.07 60.09 61.30 62.65 62.95 64.20 65.17 65.61 63.62 61.69 60.98
44.00 47.76 50.00 51.80 52.17 52.19 52.69 53.29 53.47 54.20 54.01 53.16 53.25 53.16 52.95 53.11 53.49 54.37 55.13 55.88 56.14 55.78 55.95 56.63 57.76 57.52 58.70 59.32 58.94 58.54 59.30 59.85 60.09 60.51 59.87 60.03 60.16 61.05 61.82 64.54 64.94 66.93 67.11 66.75
43.24 48.54 48.03 49.24 52.13 53.60 52.58 52.50 53.29 52.52 53.05 54.26 54.34 53.98 53.82 54.06 55.17 55.17 54.55 55.06 54.78 55.55 56.01 57.14 57.46 57.73 58.85 59.25 58.66 58.52 58.93 59.74 59.78 59.85 59.74 58.31 59.28 59.45 54.41 53.87 52.60 50.61 51.69 60.15
48.09 50.92 50.56 51.92 52.89 53.72 52.15 53.74 54.75 54.94 54.78 53.98 54.82 54.29 53.47 53.71 54.74 55.30 55.07 55.49 55.52 55.90 56.54 56.90 57.18 57.64 58.46 58.78 58.98 58.94 58.82 59.60 60.09 58.47 59.59 57.19 58.07 57.95 58.23 58.24 50.97 48.79 47.89 48.25
51.02 50.22 48.90 51.10 50.16 53.07 54.10 55.07 55.79 55.84 55.70 55.17 54.26 54.89 54.05 53.18 53.73 53.84 53.84 55.29 56.62 56.55 56.18 56.11 56.16 56.01 57.34 58.08 58.70 59.17 59.67 57.52 59.89 59.81 59.67 58.09 58.77 58.90 59.13 59.54 60.58 61.26 53.51 52.24
51.95 51.48 50.26 51.00 52.87 53.98 54.98 54.97 54.14 53.88 53.99 53.74 54.24 53.41 53.14 52.60 53.18 53.59 54.41 55.59 55.45 55.33 55.36 55.50 55.43 55.93 57.86 58.69 58.94 58.78 59.09 59.54 59.95 60.03 59.47 58.21 58.71 57.63 58.17 59.01 60.07 61.62 57.82 49.34
51.84 52.19 53.29 52.55 52.79 53.68 54.27 54.17 52.68 52.40 52.50 52.32 52.20 52.47 53.11 54.29 54.66 54.45 54.76 54.85 53.26 53.61 54.74 55.79 55.87 57.17 59.08 59.42 58.85 58.80 59.13 59.14 59.24 59.71 58.87 57.89 58.37 57.84 58.46 58.89 60.19 61.58 60.69 59.70
49.83 49.97 51.43 51.12 52.16 52.10 52.32 53.25 52.54 51.79 51.71 52.14 53.57 53.94 54.43 54.31 54.59 54.78 55.42 56.43 56.17 55.59 56.83 57.36 57.97 58.29 57.86 58.47 59.77 59.57 59.28 59.70 59.69 59.51 58.61 57.77 57.95 57.96 57.97 58.12 59.86 61.84 61.79 59.36
53.69 53.57 52.33 50.22 50.29 50.18 50.20 51.19 52.53 52.77 52.19 53.41 53.88 53.86 53.90 54.25 54.46 55.18 56.04 57.23 57.78 57.67 58.25 55.85 55.63 57.34 58.19 58.80 59.40 59.64 59.76 59.60 59.22 58.22 57.81 57.06 57.75 57.98 57.05 57.62 58.78 60.94 61.29 60.75
54.07 52.53 52.15 51.87 50.76 50.39 51.17 51.71 51.28 51.48 51.68 51.86 51.85 52.07 53.12 52.71 52.90 53.54 55.55 54.52 54.55 52.38 52.69 52.02 55.00 56.07 55.37 56.19 59.75 59.18 58.88 58.49 57.56 57.06 57.11 56.25 56.74 56.96 57.13 57.08 58.68 61.20 61.98 60.92
53.06 52.58 51.67 51.00 50.81 50.96 50.08 50.81 50.59 49.78 50.11 50.61 50.54 49.89 49.47 50.08 51.12 51.81 52.44 52.13 52.02 51.37 51.20 51.33 54.00 52.82 53.64 54.85 56.81 57.17 58.20 58.45 57.93 57.49 57.49 57.23 57.42 57.37 57.38 55.00 57.97 60.68 62.30 61.66
51.51 51.23 50.28 50.09 49.40 50.56 50.69 50.56 49.49 48.08 48.76 49.35 48.55 48.20 48.26 49.18 49.69 50.83 48.95 48.79 49.47 50.70 50.50 52.11 51.67 51.45 52.48 54.44 56.83 57.01 57.29 57.39 57.11 56.60 56.69 56.76 57.20 57.31 57.27 58.17 59.34 61.43 63.12 63.72
50.05 49.32 49.21 49.98 48.19 47.99 48.58 48.31 47.55 48.34 48.23 47.66 47.65 47.66 47.32 46.80 47.72 48.29 49.37 48.06 49.16 49.77 49.76 50.10 50.03 51.45 52.08 54.90 55.67 57.51 57.68 59.41 58.17 56.99 56.91 57.27 57.67 57.92 58.55 59.54 60.77 62.16 62.64 62.22
49.14 48.21 49.34 47.45 46.68 46.57 46.91 47.00 46.50 47.32 48.13 47.87 47.00 46.70 46.50 46.89 47.22 45.76 45.10 47.84 48.10 48.31 48.46 48.60 49.66 50.30 50.54 51.14 52.81 53.95 56.11 57.59 57.45 55.53 55.32 56.65 57.92 60.24 59.06 58.51 57.72 59.99 60.37 61.46
47.83 47.34 46.63 47.86 47.45 45.54 44.25 44.75 45.35 47.31 47.85 48.55 48.03 48.06 47.04 45.90 46.29 47.32 47.79 48.28 48.05 48.06 47.77 48.16 48.26 48.88 48.39 48.31 48.58 48.66 49.22 50.68 51.86 52.58 56.41 50.24 55.41 57.07 59.16 58.42 56.18 58.26 60.71 59.43
47.79 47.31 46.70 46.75 45.87 45.67 44.87 45.29 44.87 44.87 45.24 46.61 47.41 47.88 47.56 47.57 46.26 46.68 47.09 47.32 47.41 47.13 46.86 47.69 47.76 47.51 46.17 46.48 46.46 46.71 46.64 46.04 46.78 47.15 48.90 49.87 51.10 52.41 54.87 57.09 58.86 59.16 61.05 61.41
47.83 47.67 47.49 47.63 47.87 47.52 46.79 45.02 43.07 43.90 43.73 45.47 46.09 47.02 47.03 47.18 47.02 46.93 46.88 46.88 46.81 46.82 46.64 46.63 46.43 45.67 45.18 44.98 44.80 44.55 44.77 44.88 44.39 44.86 44.62 44.78 45.92 47.18 48.07 49.91 53.22 54.26 56.35 57.15
49.31 47.74 47.42 47.38 48.50 49.09 48.06 45.71 43.18 42.93 43.66 42.80 44.24 45.21 46.16 46.40 46.54 46.66 46.54 46.61 46.39 46.16 46.25 46.36 46.18 45.75 45.16 44.39 43.83 43.62 43.25 42.94 42.65 42.86 43.38 43.09 43.14 43.73 43.91 44.22 45.85 48.34 49.09 49.45

GFSNGP_sfc_wetblb_219.txt.gz
Wetbulb
40.18 43.28 43.84 44.25 44.73 45.22 40.45 39.26 38.24 43.66 50.04 53.40 56.13 56.50 57.04 58.47 60.42 57.93 57.58 57.22 57.40 57.53 57.66 58.28 59.73 63.86 66.57 66.88 67.93 68.67 69.30 67.58 69.12 70.01 70.08 69.04 70.67 73.03 73.55 73.24 72.57 72.48 71.02 71.06
38.29 44.27 43.71 43.34 46.43 45.47 46.95 49.96 50.26 51.81 50.09 53.78 54.57 56.84 57.27 57.84 57.33 56.12 55.82 56.54 56.48 57.03 57.30 57.95 57.88 57.50 61.81 62.23 63.00 65.63 65.95 65.83 68.55 69.10 68.54 68.03 68.32 69.17 71.53 72.45 72.21 72.30 71.40 70.81
35.50 40.98 42.57 40.01 44.30 45.41 46.58 48.63 50.19 46.88 48.92 51.07 49.16 52.16 53.66 54.30 55.15 55.33 55.65 55.06 54.19 54.39 54.83 55.22 56.29 57.42 56.89 58.80 60.86 60.72 62.22 63.66 65.74 67.69 67.13 66.64 66.57 66.50 67.51 69.22 71.82 71.41 71.49 71.05
35.61 37.40 32.82 42.05 48.09 50.07 48.18 48.97 49.55 49.33 49.55 49.98 50.11 51.39 52.13 52.27 52.08 53.05 53.89 54.23 54.79 54.83 55.51 56.51 56.92 57.07 57.06 57.46 57.61 58.16 60.21 61.48 62.48 65.50 66.26 65.90 65.25 65.80 65.60 67.01 69.79 70.15 70.22 69.63
35.79 34.25 37.85 44.17 46.49 45.35 44.29 44.29 49.00 48.86 50.39 51.24 52.74 51.85 50.51 54.24 54.16 53.43 53.53 54.64 55.14 55.56 55.79 56.13 56.18 56.90 57.21 57.41 56.93 57.18 57.60 58.09 59.76 61.98 65.27 64.67 64.00 64.47 64.08 64.94 66.36 68.27 68.52 67.24
35.76 34.38 33.93 41.24 49.11 50.80 48.06 40.11 50.13 50.53 49.71 50.14 49.85 44.22 47.78 52.20 53.90 54.75 55.56 55.23 55.36 56.05 56.53 56.42 56.92 56.91 56.46 56.46 56.32 56.84 57.76 58.73 60.04 61.74 63.84 64.33 63.75 63.06 62.19 62.64 63.85 66.38 66.78 67.30
36.42 35.36 39.48 47.35 50.02 50.23 39.11 40.48 50.02 50.78 49.99 49.21 47.04 48.49 50.69 53.19 53.73 54.20 54.76 55.44 55.75 55.36 55.35 55.77 56.17 55.80 55.27 56.08 56.07 57.68 58.63 59.56 59.70 60.41 61.56 62.83 63.59 62.68 60.68 60.21 60.59 62.11 65.70 67.96
37.13 35.76 36.24 49.55 49.08 42.14 44.98 47.50 50.19 50.17 50.23 49.76 50.60 51.93 52.74 53.05 52.76 53.69 53.86 54.85 55.93 54.75 54.65 55.63 56.02 54.94 55.19 55.42 57.53 57.73 58.11 59.10 59.84 60.09 60.67 61.74 62.52 62.81 62.05 60.64 58.86 59.42 60.44 62.11
39.70 39.16 44.79 47.85 48.44 49.86 49.75 49.89 49.91 50.06 51.56 52.11 51.45 51.25 51.99 51.62 52.33 53.25 53.89 54.56 55.59 55.74 56.23 56.04 55.85 55.76 54.98 56.52 57.19 57.52 57.76 58.07 58.81 59.50 60.35 61.05 60.02 60.43 60.85 60.56 58.84 58.74 59.25 59.93
41.18 45.90 47.21 49.50 50.05 51.02 50.66 49.18 50.87 51.07 51.63 51.80 50.57 51.03 50.54 51.78 51.93 52.59 53.57 54.67 55.83 54.94 54.55 55.04 56.14 56.05 55.72 56.99 57.69 57.34 56.99 57.95 58.70 58.69 58.76 59.24 58.64 60.40 60.60 60.53 61.15 61.10 61.26 61.04
43.22 46.22 48.33 50.39 50.41 50.55 51.24 52.01 52.20 52.69 52.20 52.39 51.57 51.70 51.71 51.77 52.40 52.69 53.16 54.02 54.51 54.53 55.20 55.41 55.87 56.05 57.25 57.52 57.36 56.80 57.50 57.92 58.14 58.69 58.77 59.03 58.30 59.52 60.06 60.89 61.31 61.53 63.74 64.96
41.89 47.03 46.61 47.55 50.93 52.39 51.33 51.38 52.12 51.54 52.24 53.91 53.66 52.84 52.97 52.02 52.43 52.64 53.06 53.96 54.07 54.36 54.72 55.51 56.20 56.22 56.98 57.69 57.08 56.69 56.85 57.62 57.97 58.15 58.66 59.13 57.78 58.03 52.85 52.85 51.80 49.80 49.99 55.60
47.19 49.04 49.64 50.62 51.87 52.49 50.85 52.21 53.33 53.82 53.60 52.60 53.64 53.26 53.01 52.70 52.45 53.36 52.81 53.04 53.22 53.24 54.35 55.62 56.11 56.23 57.30 57.23 56.16 55.77 55.76 56.76 57.63 56.99 58.57 58.66 57.30 56.99 56.69 56.41 50.17 48.90 47.27 46.54
50.53 49.87 48.47 49.69 48.74 51.46 53.45 54.48 54.68 54.46 54.25 53.90 53.28 53.51 53.05 52.50 52.54 52.21 52.15 53.13 53.68 53.96 54.53 54.86 55.00 55.12 56.51 56.43 56.03 55.72 56.23 55.02 57.40 58.40 58.75 58.71 58.06 57.78 57.44 56.91 56.69 57.89 51.04 51.62
49.50 49.90 49.20 50.42 52.01 52.85 53.75 53.86 53.00 52.82 52.61 52.32 52.51 51.83 51.90 51.48 52.11 53.07 54.81 54.97 55.12 55.16 55.13 55.04 55.06 54.92 57.00 57.41 57.76 57.93 57.97 57.99 58.38 58.47 58.61 58.35 58.83 58.13 57.76 57.44 57.16 57.89 57.46 51.96
50.09 51.23 52.29 51.67 51.71 51.87 51.58 51.39 50.02 50.08 51.00 51.33 51.11 51.82 53.37 54.19 54.35 54.76 55.55 55.93 55.10 54.92 56.19 56.07 55.97 57.44 56.64 57.17 57.33 57.36 57.94 58.43 58.10 58.53 58.92 58.37 58.28 57.33 56.89 56.85 56.59 57.73 58.14 59.38
48.42 48.63 49.44 48.66 48.96 48.70 49.08 49.76 50.58 51.48 52.13 51.74 51.93 52.68 52.95 53.28 53.79 54.47 54.02 55.16 55.38 56.53 57.64 55.51 52.52 53.14 53.44 56.90 56.01 56.27 57.73 58.58 59.08 58.97 58.67 58.55 58.00 57.69 57.57 57.30 56.67 57.37 58.64 59.08
52.16 51.17 49.54 47.09 48.06 48.04 49.88 50.76 50.41 50.20 49.65 50.50 51.00 51.16 51.03 50.27 49.96 50.79 51.59 52.95 53.96 54.43 53.62 52.48 50.88 52.02 54.53 54.50 54.54 55.57 56.81 57.49 58.40 58.14 58.47 58.35 57.79 57.70 57.08 56.45 56.55 56.91 57.95 58.64
52.02 50.77 50.20 50.00 49.04 48.97 49.31 49.36 49.33 49.76 49.22 49.58 49.23 48.84 49.12 49.39 49.47 49.70 51.05 50.51 51.16 48.73 49.64 50.75 52.01 52.82 52.38 52.78 54.48 54.45 54.32 55.40 58.00 57.94 58.18 56.89 57.03 56.11 55.84 55.95 56.29 56.99 57.95 58.62
51.18 50.78 49.73 49.06 49.01 48.66 47.48 48.34 48.59 47.85 48.75 48.43 47.91 47.24 46.85 47.23 48.03 48.29 49.17 48.26 49.62 48.48 49.54 49.22 50.61 50.07 50.17 50.94 53.58 53.38 54.07 55.95 55.86 57.36 57.14 57.31 56.33 56.11 56.13 53.40 56.42 57.29 57.81 59.31
49.76 49.57 48.72 47.87 47.27 47.50 47.11 47.39 46.80 45.77 47.54 47.57 46.61 46.23 46.07 46.96 47.40 47.91 46.58 46.17 46.81 48.23 48.48 49.78 49.05 48.89 50.05 50.95 52.62 53.47 55.14 56.47 55.95 56.49 56.79 56.55 56.33 56.03 56.33 56.77 57.07 57.15 57.77 58.64
48.09 47.62 46.85 46.53 45.35 44.96 46.37 45.92 45.92 45.79 47.44 47.67 47.01 46.85 46.16 45.46 46.37 46.35 47.35 45.91 47.44 48.51 47.96 47.71 48.10 49.59 49.37 51.07 49.86 50.40 51.19 53.98 56.87 56.37 55.25 55.79 55.41 55.79 56.19 56.71 57.19 58.65 60.05 60.99
47.36 46.71 45.95 44.65 44.40 44.55 44.71 44.66 44.23 44.47 47.00 47.35 46.76 46.30 45.72 45.88 46.42 44.52 43.42 46.62 47.25 47.53 47.22 47.06 48.33 48.55 48.41 47.30 47.57 48.15 48.13 48.29 48.94 49.34 52.35 55.89 54.38 54.63 57.07 59.44 59.03 58.15 59.20 60.16
46.58 45.92 44.91 46.03 45.23 44.02 43.22 43.86 43.42 43.55 44.07 46.34 47.07 47.46 46.30 44.83 45.38 46.75 47.48 47.44 47.37 47.35 46.98 47.18 47.33 47.25 46.46 45.62 45.44 45.53 46.05 45.45 46.04 46.46 48.30 46.81 51.36 52.30 54.97 56.83 56.67 55.38 56.99 55.87
46.57 45.60 45.19 45.35 45.00 44.20 44.10 44.02 43.08 43.47 42.75 43.80 45.33 46.51 46.62 46.72 45.95 46.69 47.09 47.00 47.01 46.57 46.11 47.19 47.36 46.76 44.67 43.92 43.99 43.69 43.63 44.01 43.86 44.72 45.18 45.41 45.88 47.56 48.48 50.48 54.69 54.73 58.26 59.08
46.15 45.75 45.50 45.49 46.08 46.08 45.95 44.47 41.80 41.62 41.44 41.96 42.08 43.39 45.79 46.61 47.21 47.41 47.05 46.94 46.98 46.64 46.02 45.82 45.77 45.40 44.59 43.62 42.36 42.05 41.85 42.07 42.07 42.66 42.74 43.05 43.46 44.33 44.47 45.25 47.77 51.31 52.00 52.90
46.96 45.92 45.83 45.66 46.47 47.23 47.14 44.94 41.64 41.21 41.83 40.72 40.36 42.16 42.31 43.72 44.68 45.32 45.56 45.07 45.29 45.57 46.19 45.93 45.33 45.01 44.49 43.63 42.73 41.72 40.84 40.91 40.46 40.47 40.80 40.62 40.88 41.65 42.34 42.47 41.96 42.88 45.32 46.20

GFSNGP_sfc_wetblb_222.txt.gz
Wetbulb
38.17 41.83 42.49 42.69 43.31 44.65 39.79 39.15 38.56 40.60 48.04 52.96 56.41 55.75 55.63 58.82 58.57 57.93 57.74 58.17 58.50 58.21 58.33 58.93 60.65 63.46 65.68 65.94 66.67 67.75 68.26 68.47 67.42 69.46 70.78 70.71 70.35 71.27 71.98 73.20 73.84 73.58 71.63 71.28
38.05 42.58 42.42 42.13 45.00 44.61 45.99 46.25 49.16 51.09 51.04 55.66 56.96 58.18 58.51 58.59 57.21 56.81 57.48 57.36 57.27 57.47 57.67 57.84 58.62 58.36 59.93 61.45 62.30 62.82 64.41 64.49 65.42 67.71 68.77 68.37 68.04 68.15 69.27 70.28 71.73 72.16 70.95 71.19
34.66 39.79 40.92 38.28 43.01 44.09 46.27 48.18 50.79 48.14 50.47 51.94 50.72 54.75 54.70 53.42 53.70 53.50 53.93 54.38 54.69 55.66 56.19 56.77 57.71 58.71 58.29 58.45 59.96 60.26 60.21 61.47 63.11 64.27 66.40 67.32 67.34 67.01 67.32 68.08 69.29 69.21 66.87 70.42
34.83 35.99 31.57 40.15 47.25 48.86 46.56 47.60 48.59 48.50 48.81 49.80 50.84 51.49 52.13 52.73 52.92 53.92 54.92 56.32 56.32 55.82 56.37 56.94 57.30 57.29 57.76 58.37 58.74 59.04 59.26 60.17 61.35 61.65 62.90 65.65 66.78 66.11 66.51 67.25 67.57 69.25 70.11 66.51
35.46 33.02 37.69 44.16 46.09 45.31 44.86 44.60 49.42 48.52 49.75 51.13 52.09 52.45 52.11 54.48 54.97 54.72 55.21 55.62 55.59 56.26 56.35 57.08 57.30 58.39 57.93 57.68 57.63 58.03 58.44 58.92 59.79 61.02 61.55 63.61 65.24 65.55 65.64 65.77 65.77 67.41 69.62 67.23
34.55 33.69 33.75 40.97 48.32 49.90 47.50 40.47 50.20 50.45 49.65 50.54 50.32 46.11 49.04 53.08 54.60 54.88 55.69 55.77 55.69 56.22 56.53 56.37 57.38 57.47 56.81 57.00 57.32 57.40 58.50 59.31 60.39 60.70 61.00 62.05 63.51 64.35 65.50 64.94 64.81 65.84 67.30 68.20
35.91 34.88 38.81 44.92 49.31 48.80 39.47 41.48 49.90 50.59 50.22 49.54 47.90 49.08 51.03 53.65 54.02 54.52 54.70 55.03 55.87 55.57 55.26 56.16 57.00 56.46 55.70 56.47 56.38 58.39 59.77 59.68 59.87 60.66 60.79 61.60 62.07 63.49 64.12 64.04 63.39 62.99 63.89 67.14
36.11 34.90 36.02 48.72 48.69 42.90 44.86 47.49 50.46 50.60 50.74 50.29 50.30 51.35 52.18 53.11 52.95 53.62 53.37 54.61 55.62 54.80 54.94 56.22 56.69 55.98 55.30 55.38 57.85 59.08 59.12 58.91 59.29 60.14 60.47 61.05 61.22 61.97 63.04 63.60 62.69 62.64 61.79 62.83
39.40 39.74 44.72 48.04 48.36 49.11 49.92 49.86 50.72 50.18 51.80 51.88 51.33 51.57 52.30 51.81 51.97 52.91 53.55 54.11 55.12 54.64 55.12 55.90 56.28 56.10 55.61 56.90 58.34 58.64 58.39 58.36 58.98 59.78 59.96 60.57 60.47 60.84 61.43 62.34 61.93 62.06 61.98 61.48
41.57 45.41 47.19 49.25 50.50 51.35 51.26 50.36 51.50 51.87 51.99 52.07 51.20 51.77 51.34 51.33 52.22 52.69 53.58 53.92 54.88 54.38 54.35 54.71 56.17 56.76 56.70 57.50 58.18 57.75 57.52 58.04 58.67 58.59 58.37 59.71 60.06 60.48 60.24 60.60 60.96 61.08 61.41 61.51
42.59 45.69 48.21 50.20 50.78 51.01 51.83 52.52 52.46 52.89 52.88 52.76 52.07 52.02 52.25 52.06 52.37 52.80 53.46 54.22 54.32 53.92 53.92 54.46 55.56 55.89 57.10 57.84 58.11 57.38 57.76 57.96 57.98 58.32 58.54 58.80 59.51 59.57 59.95 61.48 60.95 61.83 62.65 63.09
41.49 46.87 46.59 47.38 51.06 52.70 51.75 51.21 52.01 51.80 52.13 54.04 53.67 52.79 53.10 52.57 53.07 53.32 53.30 53.63 53.44 53.63 53.91 54.38 54.88 55.58 56.89 57.86 57.76 57.40 57.06 57.08 57.20 57.46 57.84 58.36 58.85 59.21 52.99 52.91 51.20 49.93 50.29 55.29
46.87 48.56 49.12 50.51 51.89 52.30 51.47 52.84 53.65 53.37 53.28 52.31 53.40 53.34 53.34 52.68 53.14 53.17 53.28 52.76 52.69 53.33 53.87 54.36 54.65 55.34 56.87 57.38 57.62 56.59 55.77 56.19 56.49 55.59 57.21 57.09 57.89 58.24 57.70 57.28 49.39 47.39 46.85 48.48
50.09 50.04 48.43 50.06 49.32 52.20 53.60 54.10 53.99 53.87 53.71 53.56 53.22 53.32 52.20 51.75 52.21 52.07 52.27 53.52 54.59 55.15 55.03 55.32 55.68 55.54 57.31 57.30 57.16 56.71 56.49 54.37 55.90 56.82 57.51 57.85 57.41 57.81 58.38 58.21 58.56 59.45 51.77 49.84
50.11 50.50 49.93 51.26 52.67 52.18 52.04 51.81 50.12 49.85 50.46 50.93 52.38 52.40 52.39 51.98 52.14 52.72 54.79 55.36 55.94 56.02 55.91 56.52 56.95 57.02 56.87 55.44 55.26 55.78 56.75 56.93 57.40 58.33 58.51 57.63 58.48 58.59 58.61 58.90 58.75 59.27 60.30 53.20
51.07 52.05 52.25 51.44 49.94 49.51 49.52 49.30 49.04 49.26 50.37 50.43 50.58 50.85 51.29 51.85 52.73 53.13 54.59 53.75 52.09 52.58 53.84 56.18 54.98 52.85 52.36 52.13 52.79 55.01 54.88 55.56 55.88 57.01 57.91 58.48 58.62 58.33 58.61 58.07 58.71 58.68 58.96 59.45
48.65 48.24 49.37 48.28 47.77 47.80 47.98 49.82 49.37 48.57 48.79 48.68 48.96 49.96 50.43 49.90 49.79 50.24 50.35 50.86 52.00 52.74 53.70 53.98 50.80 50.87 51.11 52.66 53.68 53.37 53.21 54.05 55.28 56.28 57.66 58.43 58.26 57.32 57.47 58.00 58.21 58.62 58.74 59.58
51.33 50.62 49.66 48.14 47.63 47.54 47.80 48.48 48.32 48.04 47.08 48.21 48.70 48.24 47.69 47.41 47.15 47.73 48.73 49.57 50.39 51.21 50.13 49.86 49.94 50.33 51.41 51.37 51.15 51.80 52.31 52.90 53.91 54.49 56.22 58.16 57.86 57.80 58.03 58.40 58.86 59.15 59.73 59.54
51.20 49.94 49.26 49.18 48.46 47.76 47.35 46.91 47.12 47.21 47.63 47.98 46.81 46.37 46.86 46.90 46.87 47.02 48.15 48.01 48.21 46.03 46.46 48.81 50.66 50.33 49.44 50.21 51.72 51.60 51.53 51.87 52.83 53.81 56.02 56.62 58.00 58.40 58.53 58.66 58.33 58.77 59.48 59.66
50.26 49.96 49.46 48.60 48.44 47.57 46.31 46.40 46.35 45.68 47.95 47.65 47.48 46.55 45.88 45.95 46.69 46.69 46.89 46.24 47.21 46.83 48.08 48.20 48.86 48.13 48.44 49.32 51.71 51.02 51.52 52.45 53.69 55.26 56.56 57.24 57.61 58.41 58.70 54.04 57.48 58.62 59.23 59.66
49.32 48.79 48.15 47.24 46.18 46.32 45.98 45.31 45.25 45.29 47.47 47.76 46.98 46.32 45.75 46.09 46.44 46.55 45.06 44.40 45.95 47.62 48.14 48.71 47.83 47.60 48.30 49.15 48.88 48.73 49.41 49.87 51.30 53.93 56.38 57.30 57.71 58.15 58.42 58.34 58.49 58.76 59.14 59.25
47.94 47.17 46.78 46.07 44.92 44.53 44.77 44.59 44.47 45.38 46.50 47.12 46.94 46.69 45.75 44.80 45.53 45.74 46.66 45.35 46.91 47.99 47.45 47.12 47.63 48.60 47.76 48.54 46.64 46.24 47.19 47.68 48.26 49.36 50.78 52.17 54.91 55.27 55.90 57.21 58.46 59.34 59.86 60.60
47.07 46.46 45.97 45.19 44.81 44.43 44.21 44.35 43.80 44.39 44.64 45.50 45.53 45.99 45.37 45.66 46.09 44.49 43.60 46.76 47.33 47.57 46.85 46.80 48.06 48.26 47.51 44.91 44.65 44.71 44.60 45.35 45.15 45.79 47.41 49.12 50.96 52.01 52.81 54.29 55.32 58.44 59.30 60.78
46.50 45.84 45.33 46.32 45.83 44.99 44.20 44.21 43.59 43.99 43.96 44.67 44.67 45.60 46.08 45.10 44.61 46.73 47.96 47.51 47.42 47.33 46.82 47.05 47.26 47.30 46.13 44.12 43.15 42.64 42.72 42.88 42.98 43.73 45.01 44.33 47.27 48.53 49.36 49.70 50.49 54.46 56.78 58.96
46.62 46.02 45.71 45.80 45.74 45.58 45.53 45.61 45.47 43.67 43.05 43.23 43.34 44.24 45.02 46.09 45.58 46.29 46.73 46.51 46.66 46.39 46.18 46.88 46.94 46.41 44.42 43.34 42.86 41.70 41.02 41.35 41.39 41.72 42.43 43.07 43.38 44.69 46.11 46.45 47.17 50.42 52.05 55.38
46.51 46.08 45.81 46.12 46.42 46.60 46.80 45.92 44.76 43.25 42.76 41.82 42.73 43.57 43.75 44.50 45.04 45.67 46.01 45.82 46.16 45.89 45.29 45.28 45.37 44.61 43.64 43.17 42.33 41.65 40.28 39.61 39.94 40.22 40.35 40.60 40.70 41.45 43.07 43.12 43.01 43.93 47.68 49.10
47.78 45.49 46.48 46.42 46.89 47.26 47.59 46.89 44.51 43.91 43.54 42.98 42.27 43.58 43.82 44.04 44.50 44.81 44.74 45.32 45.21 45.21 45.48 45.07 44.30 43.99 43.26 42.61 42.15 41.45 40.67 39.21 38.32 39.12 39.11 38.89 38.83 39.09 40.20 41.09 40.61 40.68 41.99 43.91